DLH506 EDDF-SBGR

Flight info

Callsign DLH506
Flight time N/A
Altitude 31000
Route ANEKI2L/18 ANEKI Y163 HERBI Y164 OLBEN/N0480F330 DCT SAPRE DCT NAKET DCT TOU DCT TOPTU DCT VTB/N0481F350 DCT INPAN N10 HIJ N857 KORNO UN857 TERTO N857 DEREV/N0480F360 N857 GUNET UN857 TEKSO/N0480F380 UN857 FNR DCT UBRUT DCT REC DCT UDOSA UZ21 OBLAX/N0479F400 UZ21 VUNOX
Aircraft B748/H-SADE2E3GHIJ3J4J5M1P2RWXYZ/LB1D1

Departure

Time 2026-05-07 15:00
Airport Frankfurt Main Airport (EDDF)

Arrival

Time N/A
Airport São Paulo/Guarulhos–Governor André Franco Montoro International Airport (SBGR)
Time Latitude Longitude Altitude Speed Heading
2026-05-07 14:33 50.04755 8.56393 359 ft 0 kts 340°
2026-05-07 14:45 50.04754 8.56394 358 ft 0 kts 340°
2026-05-07 14:45 50.04750 8.56396 358 ft 4 kts 340°
2026-05-07 14:46 50.04734 8.56405 358 ft 2 kts 340°
2026-05-07 14:46 50.04720 8.56414 358 ft 2 kts 340°
2026-05-07 14:46 50.04710 8.56419 358 ft 0 kts 340°
2026-05-07 14:46 50.04697 8.56429 358 ft 2 kts 321°
2026-05-07 14:47 50.04687 8.56446 358 ft 2 kts 297°
2026-05-07 14:47 50.04682 8.56468 358 ft 2 kts 276°
2026-05-07 14:47 50.04683 8.56492 358 ft 2 kts 255°
2026-05-07 14:47 50.04684 8.56497 358 ft 0 kts 250°
2026-05-07 14:48 50.04678 8.56467 358 ft 1 kts 253°
2026-05-07 14:48 50.04676 8.56457 358 ft 1 kts 250°
2026-05-07 14:48 50.04675 8.56455 358 ft 0 kts 250°
2026-05-07 14:51 50.04671 8.56436 358 ft 4 kts 250°
2026-05-07 14:51 50.04652 8.56359 358 ft 10 kts 250°
2026-05-07 14:51 50.04623 8.56237 358 ft 12 kts 250°
2026-05-07 14:52 50.04592 8.56108 358 ft 11 kts 250°
2026-05-07 14:52 50.04575 8.56040 358 ft 6 kts 250°
2026-05-07 14:52 50.04573 8.56030 358 ft 0 kts 250°
2026-05-07 14:53 50.04573 8.56029 358 ft 0 kts 250°
2026-05-07 14:53 50.04571 8.56021 358 ft 0 kts 250°
2026-05-07 14:53 50.04563 8.55991 358 ft 7 kts 246°
2026-05-07 14:53 50.04487 8.55922 358 ft 19 kts 185°
2026-05-07 14:54 50.04343 8.55942 358 ft 19 kts 162°
2026-05-07 14:54 50.04237 8.55897 358 ft 17 kts 239°
2026-05-07 14:54 50.04188 8.55721 358 ft 18 kts 251°
2026-05-07 14:54 50.04142 8.55524 358 ft 20 kts 250°
2026-05-07 14:55 50.04091 8.55306 358 ft 22 kts 250°
2026-05-07 14:55 50.04033 8.55063 358 ft 24 kts 250°
2026-05-07 14:55 50.03968 8.54800 358 ft 26 kts 249°
2026-05-07 14:55 50.03899 8.54520 358 ft 28 kts 251°
2026-05-07 14:56 50.03809 8.54239 358 ft 29 kts 247°
2026-05-07 14:56 50.03737 8.53951 358 ft 26 kts 250°
2026-05-07 14:56 50.03672 8.53682 358 ft 26 kts 249°
2026-05-07 14:56 50.03609 8.53433 358 ft 22 kts 251°
2026-05-07 14:57 50.03554 8.53204 358 ft 22 kts 249°
2026-05-07 14:57 50.03502 8.52992 358 ft 12 kts 249°
2026-05-07 14:57 50.03474 8.52883 358 ft 7 kts 249°
2026-05-07 14:57 50.03457 8.52811 358 ft 1 kts 249°
2026-05-07 14:58 50.03451 8.52788 358 ft 3 kts 249°
2026-05-07 14:58 50.03437 8.52735 358 ft 8 kts 249°
2026-05-07 14:58 50.03408 8.52624 358 ft 9 kts 240°
2026-05-07 14:58 50.03386 8.52606 358 ft 4 kts 178°
2026-05-07 14:59 50.03176 8.52610 358 ft 59 kts 180°
2026-05-07 14:59 50.02551 8.52607 358 ft 115 kts 181°
2026-05-07 14:59 50.01580 8.52627 357 ft 160 kts 180°
2026-05-07 14:59 50.00391 8.52706 537 ft 178 kts 177°
2026-05-07 15:00 49.99109 8.52851 784 ft 193 kts 181°
2026-05-07 15:00 49.97671 8.52926 832 ft 217 kts 179°
2026-05-07 15:00 49.96160 8.53027 1341 ft 219 kts 180°
2026-05-07 15:00 49.94619 8.53120 1788 ft 224 kts 180°
2026-05-07 15:01 49.93045 8.53222 2286 ft 226 kts 180°
2026-05-07 15:01 49.91993 8.53289 2600 ft 227 kts 179°
2026-05-07 15:01 49.89865 8.53424 3210 ft 231 kts 180°
2026-05-07 15:01 49.88250 8.53522 3700 ft 233 kts 180°
2026-05-07 15:02 49.86604 8.53621 4162 ft 235 kts 180°
2026-05-07 15:02 49.84965 8.53722 4568 ft 239 kts 179°
2026-05-07 15:02 49.83267 8.53819 4980 ft 243 kts 180°
2026-05-07 15:02 49.81576 8.53921 5399 ft 246 kts 179°
2026-05-07 15:03 49.79859 8.54033 5813 ft 249 kts 179°
2026-05-07 15:03 49.78129 8.54051 6181 ft 252 kts 189°
2026-05-07 15:03 49.76340 8.53796 6373 ft 266 kts 186°
2026-05-07 15:03 49.74430 8.53547 6520 ft 283 kts 186°
2026-05-07 15:04 49.72463 8.53298 7063 ft 286 kts 186°
2026-05-07 15:04 49.70458 8.53047 7559 ft 290 kts 186°
2026-05-07 15:04 49.68443 8.52793 8097 ft 292 kts 186°
2026-05-07 15:04 49.66421 8.52536 8616 ft 295 kts 186°
2026-05-07 15:05 49.64359 8.52273 9144 ft 297 kts 187°
2026-05-07 15:05 49.62293 8.52008 9684 ft 299 kts 187°
2026-05-07 15:05 49.60202 8.51740 10219 ft 301 kts 187°
2026-05-07 15:05 49.58080 8.51466 10634 ft 308 kts 187°
2026-05-07 15:06 49.55900 8.51181 10840 ft 323 kts 187°
2026-05-07 15:06 49.53618 8.50884 10986 ft 341 kts 187°
2026-05-07 15:06 49.51167 8.50565 11103 ft 360 kts 187°
2026-05-07 15:06 49.48622 8.50233 11211 ft 378 kts 187°
2026-05-07 15:07 49.45955 8.49886 11358 ft 395 kts 187°
2026-05-07 15:07 49.43176 8.49526 11780 ft 403 kts 187°
2026-05-07 15:07 49.40357 8.49161 12319 ft 407 kts 187°
2026-05-07 15:07 49.37567 8.48802 12871 ft 409 kts 187°
2026-05-07 15:08 49.34701 8.48431 13433 ft 413 kts 187°
2026-05-07 15:08 49.31864 8.48061 13994 ft 415 kts 187°
2026-05-07 15:08 49.28946 8.47681 14557 ft 418 kts 187°
2026-05-07 15:08 49.26048 8.47306 15101 ft 421 kts 187°
2026-05-07 15:09 49.23146 8.46928 15635 ft 424 kts 187°
2026-05-07 15:09 49.20176 8.46543 16166 ft 427 kts 187°
2026-05-07 15:09 49.17247 8.46163 16678 ft 430 kts 187°
2026-05-07 15:09 49.14249 8.45773 17191 ft 433 kts 187°
2026-05-07 15:10 49.11227 8.45381 17695 ft 436 kts 187°
2026-05-07 15:10 49.08230 8.44992 18183 ft 438 kts 187°
2026-05-07 15:10 49.05208 8.44448 18643 ft 439 kts 193°
2026-05-07 15:10 49.02216 8.43444 19127 ft 442 kts 195°
2026-05-07 15:11 48.99209 8.42377 19596 ft 444 kts 195°
2026-05-07 15:11 48.96225 8.41297 20060 ft 447 kts 195°
2026-05-07 15:11 48.93186 8.40215 20520 ft 449 kts 195°
2026-05-07 15:11 48.90127 8.39133 20972 ft 452 kts 195°
2026-05-07 15:12 48.87012 8.38039 21419 ft 454 kts 195°
2026-05-07 15:12 48.83946 8.36968 21849 ft 457 kts 195°
2026-05-07 15:12 48.80818 8.35878 22281 ft 459 kts 195°
2026-05-07 15:12 48.77717 8.34796 22699 ft 462 kts 194°
2026-05-07 15:13 48.74601 8.33664 23108 ft 464 kts 195°
2026-05-07 15:13 48.71463 8.32521 23511 ft 467 kts 195°
2026-05-07 15:13 48.68268 8.31352 23915 ft 469 kts 195°
2026-05-07 15:13 48.65113 8.30198 24316 ft 472 kts 195°
2026-05-07 15:14 48.61917 8.29034 24707 ft 474 kts 195°
2026-05-07 15:14 48.58723 8.27868 25069 ft 477 kts 195°
2026-05-07 15:14 48.55456 8.26680 25435 ft 480 kts 195°
2026-05-07 15:14 48.52207 8.25499 25784 ft 483 kts 195°
2026-05-07 15:15 48.48944 8.24313 26123 ft 487 kts 195°
2026-05-07 15:15 48.45654 8.23113 26497 ft 489 kts 195°
2026-05-07 15:15 48.42356 8.21910 26893 ft 491 kts 195°
2026-05-07 15:15 48.39026 8.20697 27285 ft 492 kts 195°
2026-05-07 15:16 48.35674 8.19475 27667 ft 494 kts 195°
2026-05-07 15:16 48.32362 8.18268 28037 ft 496 kts 195°
2026-05-07 15:16 48.29007 8.17047 28405 ft 498 kts 195°
2026-05-07 15:16 48.25635 8.15821 28784 ft 500 kts 195°
2026-05-07 15:17 48.22306 8.14275 29208 ft 497 kts 201°
2026-05-07 15:17 48.19103 8.12505 29688 ft 495 kts 202°
2026-05-07 15:17 48.15900 8.10673 30203 ft 492 kts 202°
2026-05-07 15:17 48.12715 8.08798 30743 ft 489 kts 203°
2026-05-07 15:18 48.09534 8.06953 31000 ft 490 kts 202°
2026-05-07 15:18 48.06367 8.05149 31104 ft 486 kts 202°
2026-05-07 15:18 48.03203 8.03362 31320 ft 490 kts 202°
2026-05-07 15:18 47.99984 8.01546 31635 ft 494 kts 202°
2026-05-07 15:19 47.96782 7.99743 32044 ft 492 kts 202°
2026-05-07 15:19 47.93628 7.97973 32568 ft 486 kts 202°
2026-05-07 15:19 47.90453 7.96194 32888 ft 485 kts 202°
2026-05-07 15:19 47.87294 7.94423 32883 ft 482 kts 202°
2026-05-07 15:20 47.81027 7.90920 32902 ft 484 kts 202°
2026-05-07 15:20 47.74766 7.87428 33009 ft 481 kts 202°
2026-05-07 15:21 47.68475 7.83926 33071 ft 481 kts 202°
2026-05-07 15:21 47.62213 7.80452 33065 ft 483 kts 202°
2026-05-07 15:22 47.55931 7.76973 33047 ft 480 kts 203°
2026-05-07 15:22 47.49661 7.73511 33037 ft 480 kts 203°
2026-05-07 15:23 47.43407 7.70069 33037 ft 482 kts 203°
2026-05-07 15:23 47.37175 7.66639 33030 ft 479 kts 204°
2026-05-07 15:24 47.31230 7.62138 33045 ft 474 kts 216°
2026-05-07 15:24 47.26132 7.56106 33079 ft 473 kts 225°
2026-05-07 15:25 47.21229 7.49720 32996 ft 468 kts 226°
2026-05-07 15:25 47.16568 7.43092 33049 ft 469 kts 227°
2026-05-07 15:26 47.11936 7.36426 33031 ft 467 kts 227°
2026-05-07 15:26 47.07261 7.29719 33015 ft 466 kts 226°
2026-05-07 15:27 47.02622 7.23091 33008 ft 468 kts 226°
2026-05-07 15:27 46.97979 7.16478 33003 ft 465 kts 226°
2026-05-07 15:28 46.93358 7.09918 33005 ft 463 kts 227°
2026-05-07 15:28 46.88721 7.03350 33015 ft 465 kts 227°
2026-05-07 15:29 46.84082 6.96798 33024 ft 464 kts 227°
2026-05-07 15:29 46.79446 6.90268 33032 ft 461 kts 227°
2026-05-07 15:30 46.74827 6.83781 33042 ft 463 kts 227°
2026-05-07 15:30 46.70168 6.77248 33049 ft 463 kts 227°
2026-05-07 15:31 46.65538 6.70776 33038 ft 460 kts 227°
2026-05-07 15:31 46.60918 6.64332 33029 ft 461 kts 227°
2026-05-07 15:32 46.56312 6.57920 33014 ft 462 kts 227°
2026-05-07 15:32 46.51674 6.51482 32986 ft 459 kts 227°
2026-05-07 15:33 46.47156 6.44987 32979 ft 456 kts 232°
2026-05-07 15:33 46.43314 6.37704 32999 ft 456 kts 237°
2026-05-07 15:34 46.39626 6.30294 33013 ft 454 kts 236°
2026-05-07 15:34 46.35922 6.22864 33001 ft 451 kts 236°
2026-05-07 15:35 46.32256 6.15536 33003 ft 453 kts 236°
2026-05-07 15:35 46.28578 6.08197 33007 ft 452 kts 236°
2026-05-07 15:36 46.24874 6.00830 32996 ft 449 kts 236°
2026-05-07 15:36 46.21197 5.93530 33003 ft 451 kts 236°
2026-05-07 15:37 46.17529 5.86271 33018 ft 452 kts 236°
2026-05-07 15:37 46.13830 5.78972 33025 ft 449 kts 236°
2026-05-07 15:38 46.10144 5.71712 33044 ft 450 kts 236°
2026-05-07 15:38 46.06446 5.64450 33046 ft 452 kts 236°
2026-05-07 15:39 46.02745 5.57202 33042 ft 449 kts 236°
2026-05-07 15:39 45.99034 5.49947 33043 ft 449 kts 236°
2026-05-07 15:40 45.95327 5.42722 33022 ft 452 kts 236°
2026-05-07 15:40 45.91622 5.35525 33001 ft 450 kts 236°
2026-05-07 15:41 45.87902 5.28312 32996 ft 449 kts 236°
2026-05-07 15:41 45.84163 5.21082 32995 ft 451 kts 236°
2026-05-07 15:42 45.80439 5.13896 32995 ft 450 kts 235°
2026-05-07 15:42 45.76720 5.06738 32990 ft 448 kts 235°
2026-05-07 15:43 45.72966 4.99532 32993 ft 451 kts 235°
2026-05-07 15:43 45.69242 4.92401 32996 ft 451 kts 235°
2026-05-07 15:44 45.65482 4.85222 32992 ft 448 kts 235°
2026-05-07 15:44 45.61747 4.78108 32998 ft 451 kts 235°
2026-05-07 15:45 45.57985 4.70959 33005 ft 453 kts 235°
2026-05-07 15:45 45.54210 4.63804 33001 ft 450 kts 235°
2026-05-07 15:46 45.48573 4.53147 33005 ft 451 kts 235°
2026-05-07 15:47 45.44786 4.46016 32964 ft 451 kts 235°
2026-05-07 15:47 45.41008 4.38911 32968 ft 453 kts 235°
2026-05-07 15:48 45.37208 4.31785 33017 ft 451 kts 234°
2026-05-07 15:48 45.33413 4.24680 33013 ft 449 kts 234°
2026-05-07 15:49 45.29638 4.17618 33023 ft 452 kts 234°
2026-05-07 15:49 45.25838 4.10557 33028 ft 452 kts 234°
2026-05-07 15:50 45.22027 4.03489 33015 ft 449 kts 234°
2026-05-07 15:50 45.18209 3.96423 33014 ft 451 kts 234°
2026-05-07 15:51 45.14393 3.89379 33028 ft 453 kts 234°
2026-05-07 15:51 45.10591 3.82374 33016 ft 451 kts 234°
2026-05-07 15:52 45.06762 3.75335 33008 ft 451 kts 233°
2026-05-07 15:52 45.02942 3.68327 33015 ft 453 kts 233°
2026-05-07 15:53 44.99118 3.61333 33016 ft 451 kts 233°
2026-05-07 15:53 44.95274 3.54313 33014 ft 449 kts 233°
2026-05-07 15:54 44.91451 3.47349 33025 ft 451 kts 233°
2026-05-07 15:54 44.87596 3.40343 33036 ft 452 kts 233°
2026-05-07 15:55 44.83767 3.33398 33028 ft 449 kts 233°
2026-05-07 15:55 44.79927 3.26453 33013 ft 450 kts 233°
2026-05-07 15:56 44.76067 3.19486 33003 ft 452 kts 233°
2026-05-07 15:56 44.72234 3.12586 32995 ft 450 kts 232°
2026-05-07 15:57 44.68365 3.05634 32982 ft 449 kts 232°
2026-05-07 15:57 44.64504 2.98720 32977 ft 452 kts 232°
2026-05-07 15:58 44.60652 2.91832 32955 ft 451 kts 232°
2026-05-07 15:58 44.56795 2.84952 32934 ft 449 kts 232°
2026-05-07 15:59 44.52895 2.78015 32932 ft 452 kts 232°
2026-05-07 15:59 44.49020 2.71139 32951 ft 453 kts 232°
2026-05-07 16:00 44.45124 2.64240 32966 ft 450 kts 232°
2026-05-07 16:00 44.41233 2.57364 32966 ft 451 kts 232°
2026-05-07 16:01 44.37327 2.50479 32967 ft 454 kts 232°
2026-05-07 16:01 44.33437 2.43643 32962 ft 452 kts 232°
2026-05-07 16:02 44.29513 2.36757 32957 ft 451 kts 232°
2026-05-07 16:02 44.25593 2.29895 32966 ft 454 kts 231°
2026-05-07 16:03 44.21660 2.23031 32966 ft 454 kts 231°
2026-05-07 16:03 44.17734 2.16190 32953 ft 451 kts 231°
2026-05-07 16:04 44.13813 2.09378 32950 ft 452 kts 231°
2026-05-07 16:04 44.09896 2.02586 32961 ft 454 kts 231°
2026-05-07 16:05 44.05966 1.95787 32962 ft 451 kts 231°
2026-05-07 16:05 44.02008 1.88959 32960 ft 451 kts 231°
2026-05-07 16:06 43.98071 1.82178 32965 ft 454 kts 231°
2026-05-07 16:06 43.94117 1.75384 32960 ft 452 kts 231°
2026-05-07 16:07 43.90171 1.68622 32949 ft 450 kts 231°
2026-05-07 16:07 43.86264 1.61939 32955 ft 453 kts 231°
2026-05-07 16:08 43.82308 1.55186 32953 ft 452 kts 231°
2026-05-07 16:08 43.78359 1.48457 32945 ft 449 kts 231°
2026-05-07 16:09 43.74398 1.41722 32944 ft 451 kts 231°
2026-05-07 16:09 43.70464 1.35040 32946 ft 452 kts 231°
2026-05-07 16:10 43.66524 1.28300 32942 ft 448 kts 231°
2026-05-07 16:10 43.62628 1.21535 32940 ft 448 kts 231°
2026-05-07 16:11 43.58757 1.14824 32947 ft 450 kts 231°
2026-05-07 16:11 43.54871 1.08101 32945 ft 447 kts 231°
2026-05-07 16:12 43.50994 1.01406 32943 ft 446 kts 231°
2026-05-07 16:12 43.47120 0.94730 32948 ft 449 kts 231°
2026-05-07 16:13 43.43253 0.88080 32946 ft 448 kts 231°
2026-05-07 16:13 43.39362 0.81401 32940 ft 446 kts 231°
2026-05-07 16:14 43.35458 0.74712 32945 ft 448 kts 231°
2026-05-07 16:14 43.31583 0.68092 32953 ft 449 kts 231°
2026-05-07 16:15 43.27692 0.61458 32951 ft 446 kts 231°
2026-05-07 16:15 43.23770 0.54783 32953 ft 446 kts 231°
2026-05-07 16:16 43.19890 0.48192 32965 ft 448 kts 231°
2026-05-07 16:16 43.15986 0.41579 32922 ft 446 kts 230°
2026-05-07 16:17 43.12097 0.35003 32818 ft 444 kts 230°
2026-05-07 16:17 43.08202 0.28433 32859 ft 447 kts 230°
2026-05-07 16:18 43.04289 0.21844 33013 ft 448 kts 230°
2026-05-07 16:18 43.00385 0.15283 32961 ft 444 kts 230°
2026-05-07 16:19 42.96502 0.08772 32798 ft 445 kts 230°
2026-05-07 16:19 42.92596 0.02237 32616 ft 445 kts 230°
2026-05-07 16:20 42.88712 -0.04252 32428 ft 443 kts 230°
2026-05-07 16:20 42.86736 -0.07549 32322 ft 447 kts 230°
2026-05-07 16:20 42.84784 -0.10805 32197 ft 447 kts 230°
2026-05-07 16:20 42.82831 -0.14061 32065 ft 445 kts 229°
2026-05-07 16:21 42.80844 -0.17343 31927 ft 451 kts 227°
2026-05-07 16:21 42.78639 -0.20439 31779 ft 453 kts 221°
2026-05-07 16:21 42.76274 -0.23272 31599 ft 454 kts 220°
2026-05-07 16:21 42.73878 -0.26040 31474 ft 457 kts 219°
2026-05-07 16:22 42.71466 -0.28804 31607 ft 456 kts 219°
2026-05-07 16:22 42.69026 -0.31595 31833 ft 456 kts 219°
2026-05-07 16:22 42.66619 -0.34351 32043 ft 458 kts 219°
2026-05-07 16:22 42.64159 -0.37165 32247 ft 458 kts 219°
2026-05-07 16:23 42.61737 -0.39935 32436 ft 456 kts 219°
2026-05-07 16:23 42.59304 -0.42715 32575 ft 457 kts 219°
2026-05-07 16:23 42.56887 -0.45473 32683 ft 455 kts 219°
2026-05-07 16:24 42.52046 -0.50994 32843 ft 456 kts 219°
2026-05-07 16:24 42.47243 -0.56462 32969 ft 453 kts 219°
2026-05-07 16:25 42.42429 -0.61933 32994 ft 452 kts 219°
2026-05-07 16:25 42.37585 -0.67427 32980 ft 454 kts 218°
2026-05-07 16:26 42.32795 -0.72849 32947 ft 452 kts 218°
2026-05-07 16:26 42.27966 -0.78302 32922 ft 450 kts 218°
2026-05-07 16:27 42.23179 -0.83699 32920 ft 452 kts 218°
2026-05-07 16:27 42.18348 -0.89133 32923 ft 450 kts 218°
2026-05-07 16:28 42.13518 -0.94559 32936 ft 452 kts 218°
2026-05-07 16:28 42.08726 -0.99928 32955 ft 452 kts 218°
2026-05-07 16:29 42.03912 -1.05311 32954 ft 450 kts 218°
2026-05-07 16:29 41.99073 -1.10712 32946 ft 450 kts 218°
2026-05-07 16:30 41.94241 -1.16096 32934 ft 452 kts 218°
2026-05-07 16:30 41.89438 -1.21433 32925 ft 450 kts 218°
2026-05-07 16:31 41.84590 -1.26809 32932 ft 448 kts 218°
2026-05-07 16:31 41.79757 -1.32157 32940 ft 451 kts 218°
2026-05-07 16:32 41.74963 -1.37455 32942 ft 451 kts 218°
2026-05-07 16:32 41.70134 -1.42782 32925 ft 448 kts 218°
2026-05-07 16:33 41.65327 -1.48071 32912 ft 449 kts 218°
2026-05-07 16:33 41.60492 -1.53384 32904 ft 452 kts 218°
2026-05-07 16:34 41.55652 -1.58685 32901 ft 450 kts 218°
2026-05-07 16:34 41.50837 -1.63950 32912 ft 448 kts 218°
2026-05-07 16:35 41.45983 -1.69250 32937 ft 451 kts 218°
2026-05-07 16:35 41.41130 -1.74539 32952 ft 451 kts 218°
2026-05-07 16:36 41.36318 -1.79771 32947 ft 448 kts 218°
2026-05-07 16:36 41.31449 -1.85054 32944 ft 449 kts 218°
2026-05-07 16:37 41.26602 -1.90305 32980 ft 453 kts 218°
2026-05-07 16:37 41.21667 -1.95636 33093 ft 467 kts 218°
2026-05-07 16:38 41.16568 -2.01134 33199 ft 478 kts 218°
2026-05-07 16:38 41.11401 -2.06697 33550 ft 475 kts 218°
2026-05-07 16:38 41.08886 -2.09402 34379 ft 460 kts 218°
2026-05-07 16:39 41.06413 -2.12060 34909 ft 454 kts 218°
2026-05-07 16:39 41.01545 -2.17280 35018 ft 450 kts 219°
2026-05-07 16:40 40.96698 -2.22464 35015 ft 450 kts 219°
2026-05-07 16:40 40.91841 -2.27651 35008 ft 449 kts 219°
2026-05-07 16:41 40.86965 -2.32850 34993 ft 450 kts 219°
2026-05-07 16:41 40.82103 -2.38020 34987 ft 452 kts 219°
2026-05-07 16:42 40.77226 -2.43199 34976 ft 449 kts 219°
2026-05-07 16:42 40.72304 -2.48415 34978 ft 452 kts 219°
2026-05-07 16:43 40.67434 -2.53566 34980 ft 454 kts 220°
2026-05-07 16:43 40.62540 -2.58731 34979 ft 451 kts 220°
2026-05-07 16:44 40.57609 -2.63924 34981 ft 453 kts 220°
2026-05-07 16:44 40.52687 -2.69101 34981 ft 455 kts 219°
2026-05-07 16:45 40.47772 -2.74257 34968 ft 452 kts 219°
2026-05-07 16:45 40.42856 -2.79409 34964 ft 453 kts 219°
2026-05-07 16:46 40.37938 -2.84551 34961 ft 455 kts 219°
2026-05-07 16:46 40.33007 -2.89694 34939 ft 452 kts 219°
2026-05-07 16:47 40.28070 -2.94836 34926 ft 454 kts 220°
2026-05-07 16:47 40.23141 -2.99960 34926 ft 456 kts 220°
2026-05-07 16:48 40.18202 -3.05084 34921 ft 454 kts 220°
2026-05-07 16:48 40.13445 -3.10009 34924 ft 456 kts 220°
2026-05-07 16:49 40.08529 -3.15093 34930 ft 457 kts 220°
2026-05-07 16:49 40.03567 -3.20215 34924 ft 454 kts 220°
2026-05-07 16:50 39.98604 -3.25326 34925 ft 457 kts 221°
2026-05-07 16:50 39.93822 -3.30242 34929 ft 458 kts 221°
2026-05-07 16:51 39.88828 -3.35370 34919 ft 455 kts 221°
2026-05-07 16:51 39.83834 -3.40489 34920 ft 458 kts 222°
2026-05-07 16:52 39.78837 -3.45624 34923 ft 459 kts 224°
2026-05-07 16:52 39.74285 -3.51254 34922 ft 453 kts 229°
2026-05-07 16:53 39.69857 -3.57135 34920 ft 454 kts 229°
2026-05-07 16:53 39.65437 -3.62984 34922 ft 457 kts 229°
2026-05-07 16:54 39.60991 -3.68839 34924 ft 454 kts 229°
2026-05-07 16:54 39.56553 -3.74680 34924 ft 455 kts 229°
2026-05-07 16:55 39.52121 -3.80467 34933 ft 457 kts 229°
2026-05-07 16:55 39.47660 -3.86267 34932 ft 454 kts 229°
2026-05-07 16:56 39.43185 -3.92080 34932 ft 455 kts 229°
2026-05-07 16:56 39.36501 -4.00751 34930 ft 454 kts 229°
2026-05-07 16:57 39.32031 -4.06536 34931 ft 457 kts 229°
2026-05-07 16:57 39.27591 -4.12274 34922 ft 453 kts 229°
2026-05-07 16:58 39.23110 -4.18061 34916 ft 454 kts 230°
2026-05-07 16:58 39.18675 -4.23776 34907 ft 456 kts 230°
2026-05-07 16:59 39.14201 -4.29533 34893 ft 453 kts 230°
2026-05-07 16:59 39.09745 -4.35260 34893 ft 453 kts 230°
2026-05-07 17:00 39.05283 -4.40985 34898 ft 455 kts 231°
2026-05-07 17:00 39.00836 -4.46683 34890 ft 452 kts 231°
2026-05-07 17:01 38.96368 -4.52408 34886 ft 452 kts 231°
2026-05-07 17:01 38.91958 -4.58057 34889 ft 453 kts 231°
2026-05-07 17:02 38.87464 -4.63750 34877 ft 450 kts 231°
2026-05-07 17:02 38.82973 -4.69435 34884 ft 452 kts 231°
2026-05-07 17:03 38.78543 -4.75034 34881 ft 453 kts 231°
2026-05-07 17:03 38.74068 -4.80681 34865 ft 449 kts 231°
2026-05-07 17:04 38.69603 -4.86314 34863 ft 451 kts 231°
2026-05-07 17:04 38.65141 -4.91934 34866 ft 452 kts 231°
2026-05-07 17:05 38.60689 -4.97534 34858 ft 449 kts 231°
2026-05-07 17:05 38.56230 -5.03142 34861 ft 451 kts 231°
2026-05-07 17:06 38.51562 -5.08537 34870 ft 459 kts 224°
2026-05-07 17:06 38.46067 -5.12815 34866 ft 465 kts 216°
2026-05-07 17:07 38.40253 -5.16564 34866 ft 470 kts 214°
2026-05-07 17:07 38.34391 -5.20182 34872 ft 471 kts 214°
2026-05-07 17:08 38.28526 -5.23799 34866 ft 467 kts 214°
2026-05-07 17:08 38.22659 -5.27421 34868 ft 469 kts 214°
2026-05-07 17:09 38.16817 -5.31019 34868 ft 470 kts 214°
2026-05-07 17:09 38.10933 -5.34642 34860 ft 466 kts 214°
2026-05-07 17:10 38.05093 -5.38235 34862 ft 468 kts 214°
2026-05-07 17:10 37.99256 -5.41817 34870 ft 469 kts 214°
2026-05-07 17:11 37.93399 -5.45405 34862 ft 466 kts 214°
2026-05-07 17:11 37.87524 -5.49003 34853 ft 467 kts 214°
2026-05-07 17:12 37.81665 -5.52582 34869 ft 468 kts 215°
2026-05-07 17:12 37.75831 -5.56138 34878 ft 465 kts 215°
2026-05-07 17:13 37.70000 -5.59692 34883 ft 467 kts 215°
2026-05-07 17:13 37.64161 -5.63241 34890 ft 469 kts 215°
2026-05-07 17:14 37.58286 -5.66806 34897 ft 467 kts 214°
2026-05-07 17:14 37.52432 -5.70357 34891 ft 466 kts 214°
2026-05-07 17:15 37.46562 -5.73915 34891 ft 468 kts 215°
2026-05-07 17:15 37.41180 -5.78119 34894 ft 452 kts 226°
2026-05-07 17:16 37.36301 -5.83077 34887 ft 449 kts 228°
2026-05-07 17:16 37.31515 -5.88155 34891 ft 451 kts 228°
2026-05-07 17:17 37.26748 -5.93212 34888 ft 449 kts 228°
2026-05-07 17:17 37.21964 -5.98284 34882 ft 449 kts 228°
2026-05-07 17:18 37.17222 -6.03304 34888 ft 451 kts 228°
2026-05-07 17:18 37.12454 -6.08338 34888 ft 448 kts 228°
2026-05-07 17:19 37.07693 -6.13359 34888 ft 447 kts 227°
2026-05-07 17:19 37.02920 -6.18388 34898 ft 450 kts 227°
2026-05-07 17:20 36.98153 -6.23397 34898 ft 447 kts 227°
2026-05-07 17:20 36.93382 -6.28408 34897 ft 446 kts 227°
2026-05-07 17:21 36.88627 -6.33393 34903 ft 449 kts 227°
2026-05-07 17:21 36.83873 -6.38366 34901 ft 447 kts 227°
2026-05-07 17:22 36.79120 -6.43332 34898 ft 446 kts 227°
2026-05-07 17:22 36.74341 -6.48318 34904 ft 449 kts 227°
2026-05-07 17:23 36.69569 -6.53286 34902 ft 447 kts 227°
2026-05-07 17:23 36.64812 -6.58234 34898 ft 446 kts 227°
2026-05-07 17:24 36.60045 -6.63186 34904 ft 449 kts 227°
2026-05-07 17:24 36.55272 -6.68137 34917 ft 448 kts 226°
2026-05-07 17:25 36.50500 -6.73091 34913 ft 445 kts 226°
2026-05-07 17:25 36.45743 -6.77989 34918 ft 448 kts 226°
2026-05-07 17:26 36.40957 -6.82900 34917 ft 447 kts 226°
2026-05-07 17:26 36.36171 -6.87811 34911 ft 446 kts 226°
2026-05-07 17:27 36.31370 -6.92732 34916 ft 448 kts 226°
2026-05-07 17:27 36.26604 -6.97606 34915 ft 446 kts 226°
2026-05-07 17:28 36.21811 -7.02509 34910 ft 446 kts 226°
2026-05-07 17:28 36.17015 -7.07405 34915 ft 449 kts 226°
2026-05-07 17:29 36.12244 -7.12267 34912 ft 446 kts 226°
2026-05-07 17:29 36.07442 -7.17161 34908 ft 445 kts 226°
2026-05-07 17:30 36.02652 -7.22035 34914 ft 448 kts 226°
2026-05-07 17:30 35.97905 -7.26856 34908 ft 445 kts 226°
2026-05-07 17:31 35.93116 -7.31722 34904 ft 445 kts 226°
2026-05-07 17:31 35.88312 -7.36596 34911 ft 448 kts 226°
2026-05-07 17:32 35.83528 -7.41457 34909 ft 444 kts 226°
2026-05-07 17:32 35.78743 -7.46251 34906 ft 445 kts 225°
2026-05-07 17:33 35.73910 -7.51056 34911 ft 447 kts 225°
2026-05-07 17:33 35.69116 -7.55816 34906 ft 444 kts 225°
2026-05-07 17:34 35.64306 -7.60593 34905 ft 445 kts 225°
2026-05-07 17:34 35.59493 -7.65370 34912 ft 447 kts 225°
2026-05-07 17:35 35.54655 -7.70165 34918 ft 444 kts 225°
2026-05-07 17:35 35.49835 -7.74946 34920 ft 447 kts 225°
2026-05-07 17:36 35.45007 -7.79728 34921 ft 447 kts 225°
2026-05-07 17:36 35.40212 -7.84497 34911 ft 443 kts 225°
2026-05-07 17:37 35.35420 -7.89276 34913 ft 446 kts 225°
2026-05-07 17:37 35.30602 -7.94070 34914 ft 446 kts 225°
2026-05-07 17:38 35.25821 -7.98828 34908 ft 444 kts 225°
2026-05-07 17:38 35.21006 -8.03612 34912 ft 447 kts 225°
2026-05-07 17:39 35.16205 -8.08375 34918 ft 446 kts 225°
2026-05-07 17:39 35.11374 -8.13165 34921 ft 443 kts 224°
2026-05-07 17:40 35.06591 -8.17902 34928 ft 447 kts 224°
2026-05-07 17:40 35.01775 -8.22662 34928 ft 445 kts 224°
2026-05-07 17:41 34.96981 -8.27397 34923 ft 444 kts 224°
2026-05-07 17:41 34.92168 -8.32146 34928 ft 448 kts 224°
2026-05-07 17:42 34.87329 -8.36909 34928 ft 446 kts 224°
2026-05-07 17:42 34.82493 -8.41667 34923 ft 443 kts 224°
2026-05-07 17:43 34.77687 -8.46389 34928 ft 447 kts 224°
2026-05-07 17:43 34.72850 -8.51132 34928 ft 446 kts 224°
2026-05-07 17:44 34.68044 -8.55841 34923 ft 444 kts 224°
2026-05-07 17:44 34.63209 -8.60573 34928 ft 447 kts 224°
2026-05-07 17:45 34.58414 -8.65259 34929 ft 446 kts 224°
2026-05-07 17:45 34.53574 -8.69987 34935 ft 445 kts 224°
2026-05-07 17:46 34.48725 -8.74723 34941 ft 448 kts 224°
2026-05-07 17:46 34.43925 -8.79414 34938 ft 446 kts 223°
2026-05-07 17:47 34.39070 -8.84081 34934 ft 445 kts 223°
2026-05-07 17:47 34.34178 -8.88765 34939 ft 448 kts 223°
2026-05-07 17:48 34.29332 -8.93398 34937 ft 446 kts 223°
2026-05-07 17:48 34.24462 -8.98054 34933 ft 446 kts 223°
2026-05-07 17:49 34.19582 -9.02712 34938 ft 448 kts 223°
2026-05-07 17:49 34.14732 -9.07334 34935 ft 446 kts 223°
2026-05-07 17:50 34.09852 -9.11985 34931 ft 445 kts 223°
2026-05-07 17:50 34.05008 -9.16592 34937 ft 448 kts 223°
2026-05-07 17:51 34.00145 -9.21209 34934 ft 446 kts 223°
2026-05-07 17:51 33.95244 -9.25862 34928 ft 446 kts 223°
2026-05-07 17:52 33.90388 -9.30462 34930 ft 449 kts 223°
2026-05-07 17:52 33.85486 -9.35101 34929 ft 447 kts 223°
2026-05-07 17:53 33.80582 -9.39737 34929 ft 447 kts 223°
2026-05-07 17:53 33.75694 -9.44351 34935 ft 450 kts 223°
2026-05-07 17:54 33.70808 -9.48953 34932 ft 447 kts 223°
2026-05-07 17:54 33.65938 -9.53539 34929 ft 446 kts 223°
2026-05-07 17:55 33.61051 -9.58133 34937 ft 449 kts 223°
2026-05-07 17:55 33.56162 -9.62721 34937 ft 446 kts 223°
2026-05-07 17:56 33.51261 -9.67315 34946 ft 447 kts 222°
2026-05-07 17:56 33.46357 -9.71907 34952 ft 449 kts 222°
2026-05-07 17:57 33.42276 -9.75723 34946 ft 445 kts 222°
2026-05-07 17:57 33.36538 -9.81081 34946 ft 447 kts 222°
2026-05-07 17:58 33.31662 -9.85626 34951 ft 450 kts 222°
2026-05-07 17:58 33.26758 -9.90192 34946 ft 447 kts 222°
2026-05-07 17:59 33.21831 -9.94773 34946 ft 448 kts 222°
2026-05-07 17:59 33.16903 -9.99352 34951 ft 450 kts 222°
2026-05-07 18:00 33.12010 -10.03894 34947 ft 447 kts 222°
2026-05-07 18:00 33.07099 -10.08452 34946 ft 448 kts 222°
2026-05-07 18:01 33.02202 -10.13000 34949 ft 449 kts 222°
2026-05-07 18:01 32.97284 -10.17535 34944 ft 445 kts 221°
2026-05-07 18:02 32.89876 -10.24317 34946 ft 446 kts 221°
2026-05-07 18:03 32.84937 -10.28836 34950 ft 448 kts 221°
2026-05-07 18:03 32.80012 -10.33334 34954 ft 449 kts 221°
2026-05-07 18:04 32.75078 -10.37837 34948 ft 446 kts 221°
2026-05-07 18:04 32.70137 -10.42345 34949 ft 448 kts 221°
2026-05-07 18:05 32.65205 -10.46836 34953 ft 449 kts 221°
2026-05-07 18:05 32.60258 -10.51335 34946 ft 446 kts 221°
2026-05-07 18:06 32.55312 -10.55830 34929 ft 443 kts 221°
2026-05-07 18:06 32.50496 -10.60196 34932 ft 435 kts 221°
2026-05-07 18:07 32.45730 -10.64516 34952 ft 431 kts 221°
2026-05-07 18:07 32.40955 -10.68843 34968 ft 433 kts 221°
2026-05-07 18:08 32.36176 -10.73165 34965 ft 433 kts 221°
2026-05-07 18:08 32.31418 -10.77463 34958 ft 430 kts 221°
2026-05-07 18:09 32.26643 -10.81772 34961 ft 433 kts 221°
2026-05-07 18:09 32.21880 -10.86064 34962 ft 432 kts 221°
2026-05-07 18:10 32.17129 -10.90344 34956 ft 429 kts 221°
2026-05-07 18:10 32.12356 -10.94636 34960 ft 432 kts 221°
2026-05-07 18:11 32.07597 -10.98907 34958 ft 430 kts 221°
2026-05-07 18:11 32.02828 -11.03186 34952 ft 429 kts 221°
2026-05-07 18:12 31.98066 -11.07455 34957 ft 432 kts 221°
2026-05-07 18:12 31.93309 -11.11711 34955 ft 430 kts 221°
2026-05-07 18:13 31.88551 -11.15968 34952 ft 429 kts 221°
2026-05-07 18:13 31.83775 -11.20237 34957 ft 433 kts 221°
2026-05-07 18:14 31.79004 -11.24500 34962 ft 432 kts 221°
2026-05-07 18:14 31.74216 -11.28791 34959 ft 429 kts 221°
2026-05-07 18:15 31.69429 -11.33045 34965 ft 432 kts 221°
2026-05-07 18:15 31.64678 -11.37263 34965 ft 432 kts 221°
2026-05-07 18:16 31.59873 -11.41525 34957 ft 429 kts 221°
2026-05-07 18:16 31.55094 -11.45762 34957 ft 432 kts 221°
2026-05-07 18:17 31.50353 -11.49958 34951 ft 430 kts 221°
2026-05-07 18:17 31.45561 -11.54196 34946 ft 428 kts 221°
2026-05-07 18:18 31.40811 -11.58395 34949 ft 431 kts 221°
2026-05-07 18:18 31.36050 -11.62599 34943 ft 429 kts 221°
2026-05-07 18:19 31.31276 -11.66809 34947 ft 428 kts 221°
2026-05-07 18:19 31.26496 -11.71024 34952 ft 432 kts 221°
2026-05-07 18:20 31.21711 -11.75233 34952 ft 432 kts 221°
2026-05-07 18:20 31.16925 -11.79442 34946 ft 430 kts 221°
2026-05-07 18:21 31.12099 -11.83682 34949 ft 434 kts 221°
2026-05-07 18:21 31.07317 -11.87875 34949 ft 433 kts 221°
2026-05-07 18:22 31.02508 -11.92089 34943 ft 431 kts 221°
2026-05-07 18:22 30.97669 -11.96325 34947 ft 435 kts 221°
2026-05-07 18:23 30.92866 -12.00521 34946 ft 434 kts 221°
2026-05-07 18:23 30.88015 -12.04758 34945 ft 433 kts 221°
2026-05-07 18:24 30.83184 -12.08973 34951 ft 435 kts 221°
2026-05-07 18:24 30.78399 -12.13139 34956 ft 432 kts 221°
2026-05-07 18:25 30.73572 -12.17341 34957 ft 430 kts 221°
2026-05-07 18:25 30.68749 -12.21537 34961 ft 435 kts 221°
2026-05-07 18:26 30.63912 -12.25742 34958 ft 443 kts 221°
2026-05-07 18:26 30.58916 -12.30085 35031 ft 453 kts 221°
2026-05-07 18:27 30.53836 -12.34497 35149 ft 459 kts 221°
2026-05-07 18:27 30.48701 -12.38950 35274 ft 463 kts 221°
2026-05-07 18:28 30.43515 -12.43392 35404 ft 464 kts 221°
2026-05-07 18:28 30.38368 -12.47792 35514 ft 452 kts 221°
2026-05-07 18:28 30.35883 -12.49909 35518 ft 436 kts 221°
2026-05-07 18:29 30.33453 -12.51985 35484 ft 435 kts 221°
2026-05-07 18:29 30.28582 -12.56155 35430 ft 439 kts 221°
2026-05-07 18:30 30.23603 -12.60423 35418 ft 451 kts 221°
2026-05-07 18:30 30.18538 -12.64758 35438 ft 459 kts 221°
2026-05-07 18:31 30.13415 -12.69135 35519 ft 445 kts 221°
2026-05-07 18:31 30.10974 -12.71223 35510 ft 432 kts 221°
2026-05-07 18:31 30.08577 -12.73283 35487 ft 433 kts 221°
2026-05-07 18:32 30.03704 -12.77434 35435 ft 437 kts 221°
2026-05-07 18:32 29.98769 -12.81637 35458 ft 449 kts 221°
2026-05-07 18:33 29.93789 -12.85867 35463 ft 434 kts 221°
2026-05-07 18:33 29.88895 -12.90025 35394 ft 443 kts 221°
2026-05-07 18:34 29.83844 -12.94321 35426 ft 455 kts 221°
2026-05-07 18:34 29.78749 -12.98646 35495 ft 452 kts 221°
2026-05-07 18:34 29.76229 -13.00772 35494 ft 437 kts 221°
2026-05-07 18:35 29.73816 -13.02813 35474 ft 437 kts 221°
2026-05-07 18:35 29.68914 -13.06969 35449 ft 442 kts 221°
2026-05-07 18:36 29.63886 -13.11231 35478 ft 453 kts 221°
2026-05-07 18:36 29.61386 -13.13339 35479 ft 439 kts 221°
2026-05-07 18:36 29.58946 -13.15395 35435 ft 432 kts 221°
2026-05-07 18:37 29.54068 -13.19518 35396 ft 444 kts 221°
2026-05-07 18:37 29.49023 -13.23780 35445 ft 454 kts 221°
2026-05-07 18:38 29.43950 -13.28053 35513 ft 444 kts 221°
2026-05-07 18:38 29.41488 -13.30117 35494 ft 433 kts 222°
2026-05-07 18:38 29.39064 -13.32156 35465 ft 437 kts 222°
2026-05-07 18:39 29.34085 -13.36355 35467 ft 449 kts 222°
2026-05-07 18:39 29.29053 -13.40587 35509 ft 445 kts 221°
2026-05-07 18:39 29.26582 -13.42654 35487 ft 433 kts 222°
2026-05-07 18:40 29.24145 -13.44701 35453 ft 436 kts 222°
2026-05-07 18:40 29.19195 -13.48874 35458 ft 448 kts 222°
2026-05-07 18:41 29.14018 -13.52972 35492 ft 459 kts 218°
2026-05-07 18:41 29.08676 -13.56761 35486 ft 437 kts 218°
2026-05-07 18:42 29.03497 -13.60425 35400 ft 443 kts 218°
2026-05-07 18:42 28.98208 -13.64186 35407 ft 455 kts 218°
2026-05-07 18:43 28.92773 -13.68046 35482 ft 463 kts 217°
2026-05-07 18:43 28.87318 -13.71903 35542 ft 444 kts 218°
2026-05-07 18:44 28.82113 -13.75584 35509 ft 441 kts 218°
2026-05-07 18:44 28.76914 -13.79270 35489 ft 442 kts 218°
2026-05-07 18:45 28.71620 -13.83025 35476 ft 453 kts 218°
2026-05-07 18:45 28.66255 -13.86820 35505 ft 449 kts 218°
2026-05-07 18:46 28.60993 -13.90529 35470 ft 449 kts 218°
2026-05-07 18:46 28.55589 -13.94351 35517 ft 458 kts 218°
2026-05-07 18:46 28.52939 -13.96213 35521 ft 445 kts 218°
2026-05-07 18:47 28.50293 -13.98074 35496 ft 447 kts 218°
2026-05-07 18:47 28.44938 -14.01852 35507 ft 459 kts 218°
2026-05-07 18:48 28.39624 -14.05582 35489 ft 447 kts 218°
2026-05-07 18:48 28.34253 -14.09361 35491 ft 459 kts 218°
2026-05-07 18:49 28.28866 -14.13134 35507 ft 445 kts 218°
2026-05-07 18:49 28.23552 -14.16859 35473 ft 454 kts 218°
2026-05-07 18:50 28.18123 -14.20666 35511 ft 457 kts 218°
2026-05-07 18:50 28.15460 -14.22520 35495 ft 445 kts 218°
2026-05-07 18:50 28.12812 -14.24371 35470 ft 451 kts 218°
2026-05-07 18:51 28.07378 -14.28173 35495 ft 462 kts 218°
2026-05-07 18:51 28.02025 -14.31896 35487 ft 447 kts 218°
2026-05-07 18:52 27.96643 -14.35652 35482 ft 459 kts 218°
2026-05-07 18:52 27.91211 -14.39427 35506 ft 447 kts 218°
2026-05-07 18:53 27.85878 -14.43133 35465 ft 455 kts 218°
2026-05-07 18:53 27.80440 -14.46917 35502 ft 465 kts 218°
2026-05-07 18:53 27.77707 -14.48807 35507 ft 451 kts 218°
2026-05-07 18:54 27.75052 -14.50641 35478 ft 450 kts 218°
2026-05-07 18:54 27.69657 -14.54380 35403 ft 449 kts 218°
2026-05-07 18:54 27.67044 -14.56183 34994 ft 442 kts 218°
2026-05-07 18:55 27.64402 -14.58007 34993 ft 441 kts 218°
2026-05-07 18:55 27.59144 -14.61647 34963 ft 447 kts 218°
2026-05-07 18:56 27.53815 -14.65329 34978 ft 453 kts 217°
2026-05-07 18:56 27.48469 -14.69011 34987 ft 450 kts 217°
2026-05-07 18:57 27.43105 -14.72706 34997 ft 450 kts 217°
2026-05-07 18:57 27.37739 -14.76397 35003 ft 453 kts 217°
2026-05-07 18:58 27.32504 -14.79993 34996 ft 452 kts 217°
2026-05-07 18:58 27.27149 -14.83668 34989 ft 449 kts 217°
2026-05-07 18:59 27.21773 -14.87354 34992 ft 452 kts 217°
2026-05-07 18:59 27.16420 -14.91018 34996 ft 453 kts 217°
2026-05-07 19:00 27.11048 -14.94691 34990 ft 451 kts 217°
2026-05-07 19:00 27.05688 -14.98355 34987 ft 451 kts 217°
2026-05-07 19:01 27.00331 -15.02013 34991 ft 453 kts 217°
2026-05-07 19:01 26.94965 -15.05671 34990 ft 452 kts 217°
2026-05-07 19:02 26.89583 -15.09337 34984 ft 450 kts 217°
2026-05-07 19:02 26.84178 -15.13021 34986 ft 452 kts 217°
2026-05-07 19:03 26.78826 -15.16662 34990 ft 454 kts 217°
2026-05-07 19:03 26.73434 -15.20331 34986 ft 452 kts 217°
2026-05-07 19:04 26.68042 -15.23989 34981 ft 451 kts 217°
2026-05-07 19:04 26.62651 -15.27623 34984 ft 454 kts 217°
2026-05-07 19:05 26.57253 -15.31256 34986 ft 455 kts 217°
2026-05-07 19:05 26.51857 -15.34888 34980 ft 453 kts 217°
2026-05-07 19:06 26.46384 -15.38567 34978 ft 453 kts 217°
2026-05-07 19:06 26.38285 -15.44010 34976 ft 453 kts 217°
2026-05-07 19:07 26.32828 -15.47676 34978 ft 455 kts 217°
2026-05-07 19:07 26.27414 -15.51309 34981 ft 457 kts 217°
2026-05-07 19:08 26.22012 -15.54930 34975 ft 454 kts 217°
2026-05-07 19:08 26.16579 -15.58571 34972 ft 454 kts 217°
2026-05-07 19:09 26.11158 -15.62201 34977 ft 457 kts 217°
2026-05-07 19:09 26.05669 -15.65870 34983 ft 457 kts 216°
2026-05-07 19:10 26.00220 -15.69510 34982 ft 455 kts 216°
2026-05-07 19:10 25.94764 -15.73153 34983 ft 456 kts 216°
2026-05-07 19:11 25.89329 -15.76777 34988 ft 459 kts 216°
2026-05-07 19:11 25.83870 -15.80411 34985 ft 457 kts 216°
2026-05-07 19:12 25.78385 -15.84061 34980 ft 455 kts 216°
2026-05-07 19:12 25.72948 -15.87677 34980 ft 456 kts 216°
2026-05-07 19:13 25.67509 -15.91289 34985 ft 458 kts 216°
2026-05-07 19:13 25.62062 -15.94902 34981 ft 456 kts 216°
2026-05-07 19:14 25.56591 -15.98529 34975 ft 455 kts 216°
2026-05-07 19:14 25.51135 -16.02145 34978 ft 458 kts 216°
2026-05-07 19:15 25.45691 -16.05745 34980 ft 459 kts 216°
2026-05-07 19:15 25.40197 -16.09375 34972 ft 456 kts 216°
2026-05-07 19:16 25.34723 -16.12991 34970 ft 457 kts 216°
2026-05-07 19:16 25.29278 -16.16584 34975 ft 460 kts 216°
2026-05-07 19:17 25.23795 -16.20197 34973 ft 459 kts 216°
2026-05-07 19:17 25.18302 -16.23816 34966 ft 456 kts 216°
2026-05-07 19:18 25.12833 -16.27418 34967 ft 459 kts 216°
2026-05-07 19:18 25.07330 -16.31041 34971 ft 461 kts 216°
2026-05-07 19:19 25.01863 -16.34646 34967 ft 459 kts 216°
2026-05-07 19:19 24.96351 -16.38270 34962 ft 458 kts 215°
2026-05-07 19:20 24.90837 -16.41861 34966 ft 461 kts 215°
2026-05-07 19:20 24.85309 -16.45456 34969 ft 462 kts 215°
2026-05-07 19:21 24.79822 -16.49021 34962 ft 459 kts 215°
2026-05-07 19:21 24.74278 -16.52626 34961 ft 460 kts 215°
2026-05-07 19:22 24.68746 -16.56219 34966 ft 464 kts 215°
2026-05-07 19:22 24.63210 -16.59812 34964 ft 463 kts 215°
2026-05-07 19:23 24.57671 -16.63404 34958 ft 461 kts 215°
2026-05-07 19:23 24.52133 -16.66995 34972 ft 464 kts 214°
2026-05-07 19:24 24.46561 -16.70602 34975 ft 464 kts 214°
2026-05-07 19:24 24.41034 -16.74178 34968 ft 461 kts 214°
2026-05-07 19:25 24.35461 -16.77781 34967 ft 463 kts 214°
2026-05-07 19:25 24.29918 -16.81360 34973 ft 465 kts 214°
2026-05-07 19:26 24.24370 -16.84939 34970 ft 463 kts 214°
2026-05-07 19:26 24.18802 -16.88530 34965 ft 461 kts 214°
2026-05-07 19:27 24.13242 -16.92113 34969 ft 464 kts 214°
2026-05-07 19:27 24.07718 -16.95667 34971 ft 464 kts 214°
2026-05-07 19:28 24.02142 -16.99251 34965 ft 462 kts 214°
2026-05-07 19:28 23.96601 -17.02812 34960 ft 462 kts 214°
2026-05-07 19:29 23.91035 -17.06384 34964 ft 465 kts 214°
2026-05-07 19:29 23.85471 -17.09950 34969 ft 465 kts 214°
2026-05-07 19:30 23.79871 -17.13537 34965 ft 462 kts 214°
2026-05-07 19:30 23.74324 -17.17088 34968 ft 463 kts 214°
2026-05-07 19:31 23.68750 -17.20651 34973 ft 466 kts 214°
2026-05-07 19:31 23.63206 -17.24190 34968 ft 463 kts 214°
2026-05-07 19:32 23.57604 -17.27766 34961 ft 462 kts 214°
2026-05-07 19:32 23.52048 -17.31308 34963 ft 464 kts 214°
2026-05-07 19:33 23.46500 -17.34840 34965 ft 465 kts 214°
2026-05-07 19:33 23.40909 -17.38396 34958 ft 462 kts 214°
2026-05-07 19:34 23.35359 -17.41925 34956 ft 463 kts 214°
2026-05-07 19:34 23.29776 -17.45470 34962 ft 465 kts 214°
2026-05-07 19:35 23.24227 -17.48990 34960 ft 463 kts 214°
2026-05-07 19:35 23.18639 -17.52531 34954 ft 461 kts 214°
2026-05-07 19:36 23.13057 -17.56066 34956 ft 463 kts 214°
2026-05-07 19:36 23.07493 -17.59585 34960 ft 465 kts 214°
2026-05-07 19:37 23.01951 -17.63086 34954 ft 463 kts 214°
2026-05-07 19:37 22.96369 -17.66611 34960 ft 462 kts 213°
2026-05-07 19:38 22.90777 -17.70138 34965 ft 465 kts 213°
2026-05-07 19:38 22.85197 -17.73653 34967 ft 464 kts 213°
2026-05-07 19:39 22.79635 -17.77154 34960 ft 462 kts 213°
2026-05-07 19:39 22.74020 -17.80687 34960 ft 463 kts 213°
2026-05-07 19:40 22.68474 -17.84172 34964 ft 465 kts 213°
2026-05-07 19:40 22.62889 -17.87676 34961 ft 463 kts 213°
2026-05-07 19:41 22.57312 -17.91174 34955 ft 461 kts 213°
2026-05-07 19:41 22.51715 -17.94683 34958 ft 464 kts 213°
2026-05-07 19:42 22.46122 -17.98183 34958 ft 466 kts 213°
2026-05-07 19:42 22.40551 -18.01666 34948 ft 463 kts 213°
2026-05-07 19:43 22.34922 -18.05185 34945 ft 463 kts 213°
2026-05-07 19:43 22.29346 -18.08667 34951 ft 466 kts 213°
2026-05-07 19:44 22.23742 -18.12161 34951 ft 465 kts 213°
2026-05-07 19:44 22.18163 -18.15637 34943 ft 462 kts 213°
2026-05-07 19:45 22.12567 -18.19122 34944 ft 464 kts 213°
2026-05-07 19:45 22.06951 -18.22616 34949 ft 466 kts 213°
2026-05-07 19:46 22.01357 -18.26091 34945 ft 464 kts 213°
2026-05-07 19:46 21.95755 -18.29571 34939 ft 462 kts 213°
2026-05-07 19:47 21.90176 -18.33033 34943 ft 465 kts 213°
2026-05-07 19:47 21.84572 -18.36507 34947 ft 466 kts 213°
2026-05-07 19:48 21.78973 -18.39974 34941 ft 463 kts 213°
2026-05-07 19:48 21.73370 -18.43444 34939 ft 463 kts 213°
2026-05-07 19:49 21.67762 -18.46913 34944 ft 466 kts 213°
2026-05-07 19:49 21.62187 -18.50358 34942 ft 464 kts 214°
2026-05-07 19:50 21.56556 -18.53836 34936 ft 461 kts 214°
2026-05-07 19:50 21.50974 -18.57284 34938 ft 464 kts 214°
2026-05-07 19:51 21.45356 -18.60751 34942 ft 466 kts 214°
2026-05-07 19:51 21.39771 -18.64200 34937 ft 463 kts 214°
2026-05-07 19:52 21.34187 -18.67660 34943 ft 463 kts 213°
2026-05-07 19:52 21.28589 -18.71097 34949 ft 466 kts 213°
2026-05-07 19:53 21.22950 -18.74536 34950 ft 465 kts 213°
2026-05-07 19:53 21.17354 -18.77949 34942 ft 462 kts 213°
2026-05-07 19:54 21.11710 -18.81391 34943 ft 464 kts 213°
2026-05-07 19:54 21.06120 -18.84799 34948 ft 466 kts 213°
2026-05-07 19:55 21.00520 -18.88213 34944 ft 464 kts 213°
2026-05-07 19:55 20.94869 -18.91657 34941 ft 463 kts 213°
2026-05-07 19:56 20.89261 -18.95073 34945 ft 466 kts 213°
2026-05-07 19:56 20.83627 -18.98501 34948 ft 466 kts 213°
2026-05-07 19:57 20.78028 -19.01906 34938 ft 463 kts 213°
2026-05-07 19:57 20.72381 -19.05340 34934 ft 464 kts 213°
2026-05-07 19:58 20.66747 -19.08763 34939 ft 467 kts 213°
2026-05-07 19:58 20.61155 -19.12156 34936 ft 465 kts 213°
2026-05-07 19:59 20.55488 -19.15594 34930 ft 463 kts 213°
2026-05-07 19:59 20.49853 -19.19010 34934 ft 466 kts 213°
2026-05-07 20:00 20.44233 -19.22413 34938 ft 468 kts 213°
2026-05-07 20:00 20.38572 -19.25840 34932 ft 465 kts 213°
2026-05-07 20:01 20.32928 -19.29256 34929 ft 465 kts 213°
2026-05-07 20:01 20.27303 -19.32656 34935 ft 468 kts 213°
2026-05-07 20:02 20.21629 -19.36082 34935 ft 468 kts 213°
2026-05-07 20:02 20.15984 -19.39489 34928 ft 466 kts 213°
2026-05-07 20:03 20.10284 -19.42928 34929 ft 467 kts 213°
2026-05-07 20:03 20.04629 -19.46336 34934 ft 470 kts 213°
2026-05-07 20:04 19.98986 -19.49734 34932 ft 468 kts 213°
2026-05-07 20:04 19.93276 -19.53171 34923 ft 467 kts 213°
2026-05-07 20:05 19.87636 -19.56564 34928 ft 468 kts 213°
2026-05-07 20:05 19.81960 -19.59975 34935 ft 468 kts 213°
2026-05-07 20:06 19.76310 -19.63373 34937 ft 466 kts 213°
2026-05-07 20:06 19.70615 -19.66797 34953 ft 468 kts 213°
2026-05-07 20:07 19.64976 -19.70186 34958 ft 470 kts 213°
2026-05-07 20:07 19.59304 -19.73609 34952 ft 467 kts 213°
2026-05-07 20:08 19.53654 -19.76985 34948 ft 466 kts 212°
2026-05-07 20:08 19.47962 -19.80369 34953 ft 468 kts 212°
2026-05-07 20:09 19.42307 -19.83728 34954 ft 467 kts 213°
2026-05-07 20:10 19.33823 -19.88771 34952 ft 467 kts 213°
2026-05-07 20:10 19.28195 -19.92113 34946 ft 463 kts 213°
2026-05-07 20:11 19.22561 -19.95458 34944 ft 462 kts 213°
2026-05-07 20:11 19.16942 -19.98794 34950 ft 463 kts 213°
2026-05-07 20:12 19.11338 -20.02118 34948 ft 461 kts 213°
2026-05-07 20:12 19.05778 -20.05416 34942 ft 457 kts 213°
2026-05-07 20:13 19.00172 -20.08739 34948 ft 460 kts 213°
2026-05-07 20:13 18.94621 -20.12028 34951 ft 461 kts 213°
2026-05-07 20:14 18.89044 -20.15329 34941 ft 457 kts 213°
2026-05-07 20:14 18.83444 -20.18644 34941 ft 457 kts 213°
2026-05-07 20:15 18.77922 -20.21909 34946 ft 458 kts 213°
2026-05-07 20:15 18.72374 -20.25186 34944 ft 455 kts 213°
2026-05-07 20:16 18.66869 -20.28437 34940 ft 451 kts 213°
2026-05-07 20:16 18.61336 -20.31703 34943 ft 453 kts 213°
2026-05-07 20:17 18.55869 -20.34927 34945 ft 453 kts 213°
2026-05-07 20:17 18.50396 -20.38151 34940 ft 450 kts 213°
2026-05-07 20:18 18.44905 -20.41386 34939 ft 449 kts 213°
2026-05-07 20:18 18.39423 -20.44613 34944 ft 451 kts 213°
2026-05-07 20:19 18.34001 -20.47801 34944 ft 449 kts 213°
2026-05-07 20:19 18.28532 -20.51015 34937 ft 445 kts 213°
2026-05-07 20:20 18.23102 -20.54203 34939 ft 448 kts 213°
2026-05-07 20:20 18.17646 -20.57405 34940 ft 449 kts 213°
2026-05-07 20:21 18.12220 -20.60586 34936 ft 447 kts 213°
2026-05-07 20:21 18.06784 -20.63774 34937 ft 446 kts 213°
2026-05-07 20:22 18.01323 -20.66973 34956 ft 450 kts 213°
2026-05-07 20:22 17.95893 -20.70150 34955 ft 449 kts 213°
2026-05-07 20:23 17.90421 -20.73351 34940 ft 445 kts 213°
2026-05-07 20:23 17.84967 -20.76539 34948 ft 446 kts 213°
2026-05-07 20:24 17.79533 -20.79712 34959 ft 447 kts 213°
2026-05-07 20:24 17.74133 -20.82863 34951 ft 444 kts 213°
2026-05-07 20:25 17.68688 -20.86040 34944 ft 444 kts 213°
2026-05-07 20:25 17.63285 -20.89191 34949 ft 448 kts 213°
2026-05-07 20:26 17.57849 -20.92356 34948 ft 447 kts 213°
2026-05-07 20:26 17.52400 -20.95528 34943 ft 444 kts 213°
2026-05-07 20:27 17.46983 -20.98680 34945 ft 446 kts 213°
2026-05-07 20:27 17.41565 -21.01829 34949 ft 448 kts 213°
2026-05-07 20:28 17.36119 -21.04992 34945 ft 445 kts 213°
2026-05-07 20:28 17.30700 -21.08138 34943 ft 445 kts 213°
2026-05-07 20:29 17.25259 -21.11295 34947 ft 448 kts 213°
2026-05-07 20:29 17.19852 -21.14429 34947 ft 446 kts 213°
2026-05-07 20:30 17.14391 -21.17593 34941 ft 444 kts 213°
2026-05-07 20:30 17.08973 -21.20730 34944 ft 446 kts 213°
2026-05-07 20:31 17.03529 -21.23879 34947 ft 448 kts 213°
2026-05-07 20:31 16.98109 -21.27012 34942 ft 445 kts 213°
2026-05-07 20:32 16.92646 -21.30169 34940 ft 444 kts 213°
2026-05-07 20:32 16.87240 -21.33292 34950 ft 446 kts 213°
2026-05-07 20:33 16.81834 -21.36410 34951 ft 445 kts 213°
2026-05-07 20:33 16.76345 -21.39579 35149 ft 451 kts 213°
2026-05-07 20:33 16.73603 -21.41161 35444 ft 450 kts 213°
2026-05-07 20:34 16.70902 -21.42715 35842 ft 445 kts 213°
2026-05-07 20:34 16.68185 -21.44278 36224 ft 441 kts 213°
2026-05-07 20:34 16.65498 -21.45825 36413 ft 442 kts 213°
2026-05-07 20:34 16.62808 -21.47376 36644 ft 443 kts 213°
2026-05-07 20:35 16.60103 -21.48933 36925 ft 443 kts 214°
2026-05-07 20:35 16.57409 -21.50483 37265 ft 441 kts 214°
2026-05-07 20:35 16.54744 -21.52014 37652 ft 438 kts 214°
2026-05-07 20:35 16.52074 -21.53548 38020 ft 434 kts 214°
2026-05-07 20:36 16.49433 -21.55065 38257 ft 434 kts 214°
2026-05-07 20:36 16.46794 -21.56583 38473 ft 434 kts 214°
2026-05-07 20:36 16.44132 -21.58113 38719 ft 433 kts 214°
2026-05-07 20:36 16.41496 -21.59627 38963 ft 432 kts 214°
2026-05-07 20:37 16.38883 -21.61128 38970 ft 430 kts 214°
2026-05-07 20:37 16.33666 -21.64123 39005 ft 429 kts 214°
2026-05-07 20:38 16.28432 -21.67127 38966 ft 426 kts 214°
2026-05-07 20:38 16.23239 -21.70109 38964 ft 428 kts 214°
2026-05-07 20:39 16.18020 -21.73102 38965 ft 427 kts 214°
2026-05-07 20:39 16.12813 -21.76088 38957 ft 425 kts 214°
2026-05-07 20:40 16.07619 -21.79068 38966 ft 429 kts 214°
2026-05-07 20:40 16.02388 -21.82068 38964 ft 426 kts 214°
2026-05-07 20:41 15.97181 -21.85059 38957 ft 425 kts 214°
2026-05-07 20:41 15.91982 -21.88053 38962 ft 428 kts 214°
2026-05-07 20:42 15.86793 -21.90994 38967 ft 426 kts 214°
2026-05-07 20:42 15.81578 -21.93949 38961 ft 425 kts 214°
2026-05-07 20:43 15.76337 -21.96917 38968 ft 429 kts 214°
2026-05-07 20:43 15.71147 -21.99856 38964 ft 426 kts 214°
2026-05-07 20:44 15.65912 -22.02824 38960 ft 426 kts 214°
2026-05-07 20:44 15.60711 -22.05773 38966 ft 429 kts 214°
2026-05-07 20:45 15.55463 -22.08743 38960 ft 427 kts 214°
2026-05-07 20:45 15.50223 -22.11711 38957 ft 428 kts 214°
2026-05-07 20:46 15.45003 -22.14667 38962 ft 431 kts 214°
2026-05-07 20:46 15.39736 -22.17646 38955 ft 428 kts 214°
2026-05-07 20:47 15.34492 -22.20614 38956 ft 430 kts 214°
2026-05-07 20:47 15.29225 -22.23592 38960 ft 432 kts 214°
2026-05-07 20:48 15.23962 -22.26567 38952 ft 430 kts 214°
2026-05-07 20:48 15.18677 -22.29554 38956 ft 434 kts 214°
2026-05-07 20:49 15.13369 -22.32551 38956 ft 434 kts 214°
2026-05-07 20:49 15.08193 -22.35473 38948 ft 432 kts 214°
2026-05-07 20:50 15.02896 -22.38463 38954 ft 437 kts 214°
2026-05-07 20:50 14.97554 -22.41472 38951 ft 436 kts 214°
2026-05-07 20:51 14.92217 -22.44482 38944 ft 435 kts 214°
2026-05-07 20:51 14.86856 -22.47502 38957 ft 439 kts 214°
2026-05-07 20:52 14.81517 -22.50509 38953 ft 437 kts 214°
2026-05-07 20:52 14.76141 -22.53538 38948 ft 438 kts 214°
2026-05-07 20:53 14.70804 -22.56539 38953 ft 441 kts 214°
2026-05-07 20:53 14.65405 -22.59575 38947 ft 438 kts 214°
2026-05-07 20:54 14.60022 -22.62603 38949 ft 441 kts 214°
2026-05-07 20:54 14.54651 -22.65619 38957 ft 442 kts 213°
2026-05-07 20:55 14.49249 -22.68653 38957 ft 439 kts 213°
2026-05-07 20:55 14.43816 -22.71703 38964 ft 443 kts 213°
2026-05-07 20:56 14.38439 -22.74715 38964 ft 442 kts 213°
2026-05-07 20:56 14.32997 -22.77765 38956 ft 440 kts 213°
2026-05-07 20:57 14.27603 -22.80788 38962 ft 444 kts 213°
2026-05-07 20:57 14.22208 -22.83808 38961 ft 442 kts 213°
2026-05-07 20:58 14.16768 -22.86854 38955 ft 441 kts 213°
2026-05-07 20:58 14.11366 -22.89874 38962 ft 445 kts 213°
2026-05-07 20:59 14.05932 -22.92912 38959 ft 442 kts 213°
2026-05-07 20:59 14.00507 -22.95946 38954 ft 442 kts 213°
2026-05-07 21:00 13.95106 -22.98963 38961 ft 445 kts 213°
2026-05-07 21:00 13.89700 -23.01981 38956 ft 442 kts 213°
2026-05-07 21:01 13.84240 -23.05031 38960 ft 444 kts 213°
2026-05-07 21:01 13.78808 -23.08065 38964 ft 447 kts 213°
2026-05-07 21:02 13.73356 -23.11106 38955 ft 444 kts 213°
2026-05-07 21:02 13.67847 -23.14178 38958 ft 447 kts 213°
2026-05-07 21:03 13.62397 -23.17219 38960 ft 447 kts 213°
2026-05-07 21:03 13.56932 -23.20272 38951 ft 445 kts 213°
2026-05-07 21:04 13.51471 -23.23331 38956 ft 448 kts 213°
2026-05-07 21:04 13.45996 -23.26383 38957 ft 447 kts 213°
2026-05-07 21:05 13.40521 -23.29411 38949 ft 445 kts 213°
2026-05-07 21:05 13.35032 -23.32444 38955 ft 449 kts 213°
2026-05-07 21:06 13.29580 -23.35456 38956 ft 445 kts 213°
2026-05-07 21:06 13.24097 -23.38488 38950 ft 442 kts 213°
2026-05-07 21:07 13.18669 -23.41490 38952 ft 446 kts 213°
2026-05-07 21:07 13.13229 -23.44498 38947 ft 444 kts 213°
2026-05-07 21:08 13.07770 -23.47517 38946 ft 445 kts 213°
2026-05-07 21:08 13.02304 -23.50538 38952 ft 448 kts 213°
2026-05-07 21:09 12.96838 -23.53559 38944 ft 445 kts 213°
2026-05-07 21:09 12.91362 -23.56586 38944 ft 446 kts 213°
2026-05-07 21:10 12.85904 -23.59601 38952 ft 447 kts 213°
2026-05-07 21:10 12.80400 -23.62639 38944 ft 445 kts 213°
2026-05-07 21:11 12.74913 -23.65668 38954 ft 448 kts 213°
2026-05-07 21:11 12.66702 -23.70199 38962 ft 449 kts 213°
2026-05-07 21:12 12.61196 -23.73235 38964 ft 449 kts 213°
2026-05-07 21:12 12.55713 -23.76257 38953 ft 446 kts 213°
2026-05-07 21:13 12.50184 -23.79303 38958 ft 450 kts 213°
2026-05-07 21:13 12.44693 -23.82327 38959 ft 450 kts 213°
2026-05-07 21:14 12.39180 -23.85364 38951 ft 448 kts 213°
2026-05-07 21:14 12.33637 -23.88415 38958 ft 452 kts 213°
2026-05-07 21:15 12.28116 -23.91450 38957 ft 451 kts 213°
2026-05-07 21:15 12.22593 -23.94486 38948 ft 449 kts 213°
2026-05-07 21:16 12.17073 -23.97520 38955 ft 453 kts 213°
2026-05-07 21:16 12.11537 -24.00561 38952 ft 451 kts 213°
2026-05-07 21:17 12.05996 -24.03604 38946 ft 450 kts 213°
2026-05-07 21:17 12.00468 -24.06636 38952 ft 454 kts 213°
2026-05-07 21:18 11.94940 -24.09669 38950 ft 451 kts 213°
2026-05-07 21:18 11.89375 -24.12724 38944 ft 450 kts 213°
2026-05-07 21:19 11.83842 -24.15755 38957 ft 453 kts 213°
2026-05-07 21:19 11.78290 -24.18796 38957 ft 451 kts 213°
2026-05-07 21:20 11.72751 -24.21831 38954 ft 451 kts 213°
2026-05-07 21:20 11.67215 -24.24863 38959 ft 454 kts 212°
2026-05-07 21:21 11.61651 -24.27905 38955 ft 451 kts 212°
2026-05-07 21:21 11.56102 -24.30941 38952 ft 451 kts 212°
2026-05-07 21:22 11.50578 -24.33960 38958 ft 454 kts 212°
2026-05-07 21:22 11.44999 -24.37009 38952 ft 451 kts 212°
2026-05-07 21:23 11.39443 -24.40045 38950 ft 452 kts 212°
2026-05-07 21:23 11.33888 -24.43076 38956 ft 454 kts 212°
2026-05-07 21:24 11.28325 -24.46112 38949 ft 452 kts 212°
2026-05-07 21:24 11.22755 -24.49151 38951 ft 454 kts 212°
2026-05-07 21:25 11.17197 -24.52180 38955 ft 455 kts 212°
2026-05-07 21:25 11.11594 -24.55232 38946 ft 452 kts 212°
2026-05-07 21:26 11.06024 -24.58270 38950 ft 456 kts 212°
2026-05-07 21:26 11.00448 -24.61306 38952 ft 456 kts 211°
2026-05-07 21:27 10.94862 -24.64347 38944 ft 453 kts 211°
2026-05-07 21:27 10.89229 -24.67411 38961 ft 457 kts 211°
2026-05-07 21:28 10.83648 -24.70446 38965 ft 456 kts 211°
2026-05-07 21:28 10.78054 -24.73489 38957 ft 454 kts 211°
2026-05-07 21:29 10.72461 -24.76530 38964 ft 458 kts 211°
2026-05-07 21:29 10.66867 -24.79567 38963 ft 457 kts 211°
2026-05-07 21:30 10.61211 -24.82639 38956 ft 455 kts 211°
2026-05-07 21:30 10.55607 -24.85682 38964 ft 459 kts 211°
2026-05-07 21:31 10.50009 -24.88719 38962 ft 457 kts 211°
2026-05-07 21:31 10.44358 -24.91786 38955 ft 456 kts 211°
2026-05-07 21:32 10.38743 -24.94831 38961 ft 459 kts 210°
2026-05-07 21:32 10.33140 -24.97869 38958 ft 457 kts 210°
2026-05-07 21:33 10.27511 -25.00921 38953 ft 457 kts 210°
2026-05-07 21:33 10.21896 -25.03964 38960 ft 460 kts 210°
2026-05-07 21:34 10.16250 -25.07024 38956 ft 457 kts 210°
2026-05-07 21:34 10.10634 -25.10067 38952 ft 457 kts 210°
2026-05-07 21:35 10.05026 -25.13107 38958 ft 459 kts 210°
2026-05-07 21:35 9.99424 -25.16146 38952 ft 456 kts 210°
2026-05-07 21:36 9.93805 -25.19200 38951 ft 457 kts 210°
2026-05-07 21:36 9.88169 -25.22266 38960 ft 460 kts 210°
2026-05-07 21:37 9.82521 -25.25297 38954 ft 458 kts 209°
2026-05-07 21:37 9.76867 -25.28328 38958 ft 461 kts 209°
2026-05-07 21:38 9.71219 -25.31356 38960 ft 461 kts 209°
2026-05-07 21:38 9.65522 -25.34413 38950 ft 458 kts 209°
2026-05-07 21:39 9.59862 -25.37451 38951 ft 461 kts 209°
2026-05-07 21:39 9.54212 -25.40484 38948 ft 461 kts 209°
2026-05-07 21:40 9.48550 -25.43528 38940 ft 458 kts 209°
2026-05-07 21:40 9.42893 -25.46564 38947 ft 462 kts 209°
2026-05-07 21:41 9.37210 -25.49614 38947 ft 460 kts 209°
2026-05-07 21:41 9.31555 -25.52649 38939 ft 458 kts 209°
2026-05-07 21:42 9.25908 -25.55680 38945 ft 462 kts 209°
2026-05-07 21:42 9.20219 -25.58733 38943 ft 460 kts 210°
2026-05-07 21:43 9.14541 -25.61780 38937 ft 460 kts 210°
2026-05-07 21:43 9.08882 -25.64816 38944 ft 464 kts 210°
2026-05-07 21:44 9.03183 -25.67875 38946 ft 462 kts 209°
2026-05-07 21:44 8.97491 -25.70929 38942 ft 462 kts 209°
2026-05-07 21:45 8.91808 -25.73974 38945 ft 465 kts 209°
2026-05-07 21:45 8.86088 -25.77039 38942 ft 462 kts 209°
2026-05-07 21:46 8.80395 -25.80091 38942 ft 463 kts 209°
2026-05-07 21:46 8.74704 -25.83141 38953 ft 466 kts 210°
2026-05-07 21:47 8.68955 -25.86221 38955 ft 463 kts 210°
2026-05-07 21:47 8.63224 -25.89292 38959 ft 464 kts 210°
2026-05-07 21:48 8.57526 -25.92345 38964 ft 467 kts 210°
2026-05-07 21:48 8.51798 -25.95415 38957 ft 465 kts 210°
2026-05-07 21:49 8.46038 -25.98503 38957 ft 466 kts 210°
2026-05-07 21:49 8.40324 -26.01570 38962 ft 468 kts 210°
2026-05-07 21:50 8.34570 -26.04668 38955 ft 464 kts 210°
2026-05-07 21:50 8.28848 -26.07732 38957 ft 466 kts 210°
2026-05-07 21:51 8.23086 -26.10792 38961 ft 468 kts 210°
2026-05-07 21:51 8.17339 -26.13843 38953 ft 465 kts 210°
2026-05-07 21:52 8.11579 -26.16904 38956 ft 468 kts 210°
2026-05-07 21:52 8.05838 -26.19956 38960 ft 468 kts 210°
2026-05-07 21:53 8.00051 -26.23034 38952 ft 465 kts 210°
2026-05-07 21:53 7.94292 -26.26098 38957 ft 468 kts 210°
2026-05-07 21:54 7.88557 -26.29149 38960 ft 468 kts 210°
2026-05-07 21:54 7.82803 -26.32211 38953 ft 465 kts 210°
2026-05-07 21:55 7.77037 -26.35278 38959 ft 469 kts 210°
2026-05-07 21:55 7.71258 -26.38352 38959 ft 468 kts 210°
2026-05-07 21:56 7.65474 -26.41429 38952 ft 466 kts 210°
2026-05-07 21:56 7.59727 -26.44487 38959 ft 469 kts 210°
2026-05-07 21:57 7.53983 -26.47541 38959 ft 468 kts 210°
2026-05-07 21:57 7.48181 -26.50627 38951 ft 466 kts 210°
2026-05-07 21:58 7.42436 -26.53680 38958 ft 470 kts 210°
2026-05-07 21:58 7.36681 -26.56740 38956 ft 468 kts 210°
2026-05-07 21:59 7.30868 -26.59829 38950 ft 468 kts 210°
2026-05-07 21:59 7.25099 -26.62895 38958 ft 471 kts 209°
2026-05-07 22:00 7.19338 -26.65955 38958 ft 468 kts 209°
2026-05-07 22:00 7.13548 -26.69030 38956 ft 468 kts 209°
2026-05-07 22:01 7.07785 -26.72093 38963 ft 471 kts 209°
2026-05-07 22:01 7.01973 -26.75180 38957 ft 469 kts 209°
2026-05-07 22:02 6.96178 -26.78256 38954 ft 470 kts 209°
2026-05-07 22:02 6.90390 -26.81327 38960 ft 472 kts 209°
2026-05-07 22:03 6.84610 -26.84393 38957 ft 469 kts 209°
2026-05-07 22:03 6.78813 -26.87470 38957 ft 470 kts 209°
2026-05-07 22:04 6.73037 -26.90535 38963 ft 472 kts 209°
2026-05-07 22:04 6.67205 -26.93633 38956 ft 469 kts 209°
2026-05-07 22:05 6.61414 -26.96708 38956 ft 471 kts 209°
2026-05-07 22:05 6.55624 -26.99780 38961 ft 472 kts 209°
2026-05-07 22:06 6.49843 -27.02854 38955 ft 469 kts 209°
2026-05-07 22:06 6.44020 -27.05964 38960 ft 471 kts 209°
2026-05-07 22:07 6.38230 -27.09027 38969 ft 471 kts 208°
2026-05-07 22:07 6.32410 -27.12086 38965 ft 468 kts 208°
2026-05-07 22:08 6.26593 -27.15142 39012 ft 473 kts 208°
2026-05-07 22:08 6.23663 -27.16682 39159 ft 478 kts 208°
2026-05-07 22:08 6.20727 -27.18227 39521 ft 478 kts 208°
2026-05-07 22:09 6.17792 -27.19771 39955 ft 474 kts 208°
2026-05-07 22:09 6.14881 -27.21302 39932 ft 468 kts 208°
2026-05-07 22:09 6.09111 -27.24339 40011 ft 470 kts 208°
2026-05-07 22:10 6.03361 -27.27366 40013 ft 466 kts 209°
2026-05-07 22:10 5.97602 -27.30398 39945 ft 463 kts 209°
2026-05-07 22:11 5.91862 -27.33422 39953 ft 467 kts 209°
2026-05-07 22:11 5.86124 -27.36443 39975 ft 467 kts 209°
2026-05-07 22:12 5.80363 -27.39478 39967 ft 466 kts 209°
2026-05-07 22:12 5.74576 -27.42526 39966 ft 468 kts 209°
2026-05-07 22:13 5.68803 -27.45566 39975 ft 470 kts 208°
2026-05-07 22:13 5.63035 -27.48603 39973 ft 469 kts 208°
2026-05-07 22:14 5.57255 -27.51646 39963 ft 466 kts 208°
2026-05-07 22:14 5.51469 -27.54693 39966 ft 468 kts 208°
2026-05-07 22:15 5.45696 -27.57731 39975 ft 471 kts 209°
2026-05-07 22:15 5.39925 -27.60769 39972 ft 468 kts 209°
2026-05-07 22:16 5.34142 -27.63812 39962 ft 466 kts 209°
2026-05-07 22:16 5.28361 -27.66854 39971 ft 469 kts 208°
2026-05-07 22:17 5.22583 -27.69894 39979 ft 471 kts 208°
2026-05-07 22:17 5.16787 -27.72942 39973 ft 469 kts 208°
2026-05-07 22:18 5.08080 -27.77521 39978 ft 471 kts 208°
2026-05-07 22:19 5.02295 -27.80563 39970 ft 469 kts 208°
2026-05-07 22:19 4.96448 -27.83637 39969 ft 472 kts 208°
2026-05-07 22:20 4.90615 -27.86703 39976 ft 475 kts 208°
2026-05-07 22:20 4.84773 -27.89773 39979 ft 474 kts 208°
2026-05-07 22:21 4.78949 -27.92833 39971 ft 472 kts 208°
2026-05-07 22:21 4.73080 -27.95916 39971 ft 474 kts 208°
2026-05-07 22:22 4.67248 -27.98980 39979 ft 477 kts 208°
2026-05-07 22:22 4.61353 -28.02076 39978 ft 476 kts 208°
2026-05-07 22:23 4.55474 -28.05163 39969 ft 474 kts 208°
2026-05-07 22:23 4.49590 -28.08251 39971 ft 476 kts 208°
2026-05-07 22:24 4.43712 -28.11337 39979 ft 479 kts 208°
2026-05-07 22:24 4.37826 -28.14425 39977 ft 478 kts 208°
2026-05-07 22:25 4.31924 -28.17522 39969 ft 475 kts 208°
2026-05-07 22:25 4.26064 -28.20596 39972 ft 478 kts 208°
2026-05-07 22:26 4.20132 -28.23706 39982 ft 480 kts 208°
2026-05-07 22:26 4.14230 -28.26802 39983 ft 479 kts 208°
2026-05-07 22:27 4.08321 -28.29902 39977 ft 476 kts 208°
2026-05-07 22:27 4.02414 -28.32999 39981 ft 479 kts 208°
2026-05-07 22:28 3.96516 -28.36091 39987 ft 481 kts 208°
2026-05-07 22:28 3.90611 -28.39187 39982 ft 479 kts 208°
2026-05-07 22:29 3.84695 -28.42288 39977 ft 477 kts 208°
2026-05-07 22:29 3.78782 -28.45388 39982 ft 480 kts 208°
2026-05-07 22:30 3.72878 -28.48482 39988 ft 481 kts 208°
2026-05-07 22:30 3.66966 -28.51580 39981 ft 478 kts 208°
2026-05-07 22:31 3.61046 -28.54683 39976 ft 478 kts 208°
2026-05-07 22:31 3.55129 -28.57784 39983 ft 481 kts 208°
2026-05-07 22:32 3.49226 -28.60878 39988 ft 481 kts 208°
2026-05-07 22:32 3.43308 -28.63979 39980 ft 478 kts 208°
2026-05-07 22:33 3.37381 -28.67087 39978 ft 479 kts 208°
2026-05-07 22:33 3.31465 -28.70189 39986 ft 481 kts 208°
2026-05-07 22:34 3.25555 -28.73291 39990 ft 481 kts 208°
2026-05-07 22:34 3.19638 -28.76400 39980 ft 478 kts 208°
2026-05-07 22:35 3.13721 -28.79520 39978 ft 479 kts 208°
2026-05-07 22:35 3.07810 -28.82625 39987 ft 482 kts 208°
2026-05-07 22:36 3.01893 -28.85713 39989 ft 481 kts 208°
2026-05-07 22:36 2.95960 -28.88809 39979 ft 478 kts 208°
2026-05-07 22:37 2.90025 -28.91910 39978 ft 480 kts 208°
2026-05-07 22:37 2.84098 -28.95009 39988 ft 483 kts 208°
2026-05-07 22:38 2.78170 -28.98111 39988 ft 481 kts 208°
2026-05-07 22:38 2.72229 -29.01220 39979 ft 479 kts 208°
2026-05-07 22:39 2.66287 -29.04331 39981 ft 481 kts 208°
2026-05-07 22:39 2.60351 -29.07439 39989 ft 484 kts 208°
2026-05-07 22:40 2.54412 -29.10550 39986 ft 481 kts 208°
2026-05-07 22:40 2.48462 -29.13667 39979 ft 479 kts 208°
2026-05-07 22:41 2.42518 -29.16781 39982 ft 482 kts 208°
2026-05-07 22:41 2.36585 -29.19890 39989 ft 483 kts 208°
2026-05-07 22:42 2.30646 -29.23002 39984 ft 481 kts 208°
2026-05-07 22:42 2.24696 -29.26120 39979 ft 480 kts 208°
2026-05-07 22:43 2.18761 -29.29230 39984 ft 483 kts 208°
2026-05-07 22:43 2.12803 -29.32353 39989 ft 483 kts 208°
2026-05-07 22:44 2.06839 -29.35479 39983 ft 481 kts 208°
2026-05-07 22:44 2.00908 -29.38587 39979 ft 482 kts 208°
2026-05-07 22:45 1.94947 -29.41712 39986 ft 485 kts 208°
2026-05-07 22:45 1.88988 -29.44835 39989 ft 485 kts 208°
2026-05-07 22:46 1.83015 -29.47967 39982 ft 482 kts 208°
2026-05-07 22:46 1.77026 -29.51111 39980 ft 483 kts 208°
2026-05-07 22:47 1.71068 -29.54236 39987 ft 486 kts 208°
2026-05-07 22:47 1.65108 -29.57361 39988 ft 484 kts 208°
2026-05-07 22:48 1.59137 -29.60492 39980 ft 482 kts 208°
2026-05-07 22:48 1.53164 -29.63628 39980 ft 483 kts 208°
2026-05-07 22:49 1.47204 -29.66763 39989 ft 486 kts 208°
2026-05-07 22:49 1.41248 -29.69904 39987 ft 484 kts 208°
2026-05-07 22:50 1.35268 -29.73032 39980 ft 482 kts 207°
2026-05-07 22:50 1.29266 -29.76121 39982 ft 484 kts 207°
2026-05-07 22:51 1.23274 -29.79203 39989 ft 487 kts 207°
2026-05-07 22:51 1.17276 -29.82293 39987 ft 484 kts 207°
2026-05-07 22:52 1.11271 -29.85390 39979 ft 482 kts 207°
2026-05-07 22:52 1.05274 -29.88485 39983 ft 484 kts 207°
2026-05-07 22:53 0.99289 -29.91575 39990 ft 486 kts 208°
2026-05-07 22:53 0.93302 -29.94668 39986 ft 484 kts 208°
2026-05-07 22:54 0.87300 -29.97771 39979 ft 482 kts 208°
2026-05-07 22:54 0.81303 -30.00872 39984 ft 485 kts 208°
2026-05-07 22:55 0.75319 -30.03967 39993 ft 486 kts 208°
2026-05-07 22:55 0.69332 -30.07065 39987 ft 483 kts 208°
2026-05-07 22:56 0.63336 -30.10169 39979 ft 482 kts 208°
2026-05-07 22:56 0.57346 -30.13271 39985 ft 485 kts 208°
2026-05-07 22:57 0.51365 -30.16368 39991 ft 486 kts 208°
2026-05-07 22:57 0.45380 -30.19470 39984 ft 483 kts 208°
2026-05-07 22:58 0.39379 -30.22582 39979 ft 483 kts 208°
2026-05-07 22:58 0.33396 -30.25687 39986 ft 486 kts 208°
2026-05-07 22:59 0.27434 -30.28788 39991 ft 486 kts 208°
2026-05-07 22:59 0.21428 -30.31924 39983 ft 484 kts 208°
2026-05-07 23:00 0.15426 -30.35016 39979 ft 484 kts 208°
2026-05-07 23:00 0.09392 -30.38117 39986 ft 487 kts 208°
2026-05-07 23:01 0.03406 -30.41196 39991 ft 486 kts 208°
2026-05-07 23:01 -0.02592 -30.44286 39982 ft 484 kts 208°
2026-05-07 23:02 -0.08602 -30.47385 39980 ft 484 kts 208°
2026-05-07 23:02 -0.14602 -30.50481 39986 ft 487 kts 208°
2026-05-07 23:03 -0.20637 -30.53596 39989 ft 486 kts 208°
2026-05-07 23:03 -0.26636 -30.56694 39979 ft 483 kts 208°
2026-05-07 23:04 -0.32644 -30.59799 39980 ft 484 kts 208°
2026-05-07 23:04 -0.38639 -30.62897 39987 ft 486 kts 208°
2026-05-07 23:05 -0.44627 -30.65993 39990 ft 485 kts 208°
2026-05-07 23:05 -0.50618 -30.69092 39981 ft 482 kts 208°
2026-05-07 23:06 -0.56616 -30.72196 39980 ft 484 kts 208°
2026-05-07 23:06 -0.62605 -30.75296 39989 ft 487 kts 208°
2026-05-07 23:07 -0.68590 -30.78395 39990 ft 484 kts 208°
2026-05-07 23:07 -0.74583 -30.81500 39981 ft 482 kts 208°
2026-05-07 23:08 -0.80570 -30.84605 39982 ft 484 kts 208°
2026-05-07 23:08 -0.86545 -30.87709 39990 ft 486 kts 208°
2026-05-07 23:09 -0.92519 -30.90823 39988 ft 484 kts 208°
2026-05-07 23:09 -0.98510 -30.93927 39981 ft 482 kts 208°
2026-05-07 23:10 -1.04512 -30.97008 39985 ft 485 kts 208°
2026-05-07 23:10 -1.10507 -31.00084 39991 ft 486 kts 208°
2026-05-07 23:11 -1.16501 -31.03164 39986 ft 484 kts 208°
2026-05-07 23:11 -1.22511 -31.06255 39981 ft 483 kts 208°
2026-05-07 23:12 -1.28511 -31.09344 39985 ft 486 kts 208°
2026-05-07 23:12 -1.34502 -31.12430 39990 ft 486 kts 208°
2026-05-07 23:13 -1.40501 -31.15525 39985 ft 484 kts 208°
2026-05-07 23:13 -1.46515 -31.18625 39982 ft 484 kts 208°
2026-05-07 23:14 -1.52522 -31.21722 39987 ft 487 kts 208°
2026-05-07 23:14 -1.58523 -31.24816 39990 ft 487 kts 208°
2026-05-07 23:15 -1.64533 -31.27916 39984 ft 484 kts 208°
2026-05-07 23:15 -1.70554 -31.31021 39982 ft 485 kts 208°
2026-05-07 23:16 -1.76564 -31.34124 39988 ft 488 kts 208°
2026-05-07 23:16 -1.82575 -31.37228 39990 ft 487 kts 208°
2026-05-07 23:17 -1.88594 -31.40337 39983 ft 484 kts 208°
2026-05-07 23:17 -1.94618 -31.43449 39982 ft 486 kts 208°
2026-05-07 23:18 -2.00618 -31.46549 39989 ft 489 kts 208°
2026-05-07 23:18 -2.06652 -31.49667 39989 ft 488 kts 208°
2026-05-07 23:19 -2.12673 -31.52779 39981 ft 485 kts 208°
2026-05-07 23:19 -2.18700 -31.55895 39983 ft 487 kts 208°
2026-05-07 23:20 -2.24724 -31.59009 39989 ft 489 kts 208°
2026-05-07 23:20 -2.30776 -31.62139 39986 ft 487 kts 208°
2026-05-07 23:21 -2.36809 -31.65259 39981 ft 485 kts 208°
2026-05-07 23:21 -2.42835 -31.68374 39986 ft 487 kts 208°
2026-05-07 23:22 -2.48857 -31.71488 39992 ft 489 kts 208°
2026-05-07 23:22 -2.54869 -31.74599 39988 ft 487 kts 208°
2026-05-07 23:23 -2.60924 -31.77733 39982 ft 485 kts 208°
2026-05-07 23:23 -2.66930 -31.80843 39988 ft 487 kts 208°
2026-05-07 23:24 -2.72953 -31.83960 39993 ft 488 kts 208°
2026-05-07 23:24 -2.78949 -31.87066 39986 ft 485 kts 208°
2026-05-07 23:25 -2.84986 -31.90194 39982 ft 484 kts 208°
2026-05-07 23:25 -2.90983 -31.93304 39989 ft 487 kts 208°
2026-05-07 23:26 -2.96977 -31.96410 39993 ft 486 kts 208°
2026-05-07 23:26 -3.02978 -31.99521 39984 ft 483 kts 208°
2026-05-07 23:27 -3.11969 -32.04186 39987 ft 484 kts 208°
2026-05-07 23:27 -3.17959 -32.07300 39981 ft 482 kts 208°
2026-05-07 23:28 -3.23936 -32.10415 39987 ft 484 kts 208°
2026-05-07 23:28 -3.29919 -32.13554 39992 ft 484 kts 208°
2026-05-07 23:29 -3.35870 -32.16677 39984 ft 481 kts 208°
2026-05-07 23:29 -3.41825 -32.19803 39982 ft 481 kts 208°
2026-05-07 23:30 -3.47765 -32.22928 39990 ft 483 kts 208°
2026-05-07 23:30 -3.53696 -32.26053 39991 ft 483 kts 208°
2026-05-07 23:31 -3.59629 -32.29182 39982 ft 479 kts 209°
2026-05-07 23:31 -3.65567 -32.32319 39984 ft 480 kts 209°
2026-05-07 23:32 -3.71488 -32.35450 39992 ft 483 kts 209°
2026-05-07 23:32 -3.77405 -32.38583 39991 ft 482 kts 209°
2026-05-07 23:33 -3.83298 -32.41714 39982 ft 479 kts 209°
2026-05-07 23:33 -3.88975 -32.44830 39986 ft 481 kts 211°
2026-05-07 23:34 -3.94779 -32.48160 39995 ft 483 kts 211°
2026-05-07 23:34 -4.00577 -32.51498 39990 ft 481 kts 211°
2026-05-07 23:35 -4.06386 -32.54843 39981 ft 478 kts 211°
2026-05-07 23:35 -4.12196 -32.58189 39986 ft 481 kts 211°
2026-05-07 23:36 -4.18010 -32.61538 39994 ft 485 kts 211°
2026-05-07 23:36 -4.23839 -32.64897 39987 ft 484 kts 211°
2026-05-07 23:37 -4.29685 -32.68264 39981 ft 482 kts 211°
2026-05-07 23:37 -4.35537 -32.71636 39986 ft 485 kts 211°
2026-05-07 23:38 -4.41386 -32.75003 39994 ft 487 kts 211°
2026-05-07 23:38 -4.47242 -32.78378 39989 ft 486 kts 211°
2026-05-07 23:39 -4.53115 -32.81765 39981 ft 484 kts 211°
2026-05-07 23:39 -4.58996 -32.85157 39986 ft 487 kts 211°
2026-05-07 23:40 -4.64874 -32.88547 39994 ft 490 kts 211°
2026-05-07 23:40 -4.70759 -32.91943 39988 ft 488 kts 211°
2026-05-07 23:41 -4.76666 -32.95351 39980 ft 487 kts 211°
2026-05-07 23:41 -4.82583 -32.98765 39986 ft 490 kts 211°
2026-05-07 23:42 -4.88454 -33.02154 39994 ft 493 kts 211°
2026-05-07 23:42 -4.94410 -33.05590 39988 ft 491 kts 211°
2026-05-07 23:43 -5.00348 -33.09021 39982 ft 492 kts 211°
2026-05-07 23:43 -5.06318 -33.12471 39984 ft 494 kts 211°
2026-05-07 23:44 -5.12299 -33.15928 39989 ft 497 kts 211°
2026-05-07 23:44 -5.18272 -33.19382 39987 ft 497 kts 211°
2026-05-07 23:45 -5.24268 -33.22852 39978 ft 496 kts 211°
2026-05-07 23:45 -5.30277 -33.26333 39980 ft 498 kts 211°
2026-05-07 23:46 -5.36296 -33.29821 39987 ft 502 kts 212°
2026-05-07 23:46 -5.42318 -33.33329 39986 ft 502 kts 212°
2026-05-07 23:47 -5.48366 -33.36842 39977 ft 500 kts 212°
2026-05-07 23:47 -5.54437 -33.40369 39978 ft 503 kts 212°
2026-05-07 23:48 -5.60506 -33.43899 39988 ft 506 kts 212°
2026-05-07 23:48 -5.66578 -33.47438 39987 ft 506 kts 212°
2026-05-07 23:49 -5.72681 -33.50993 39978 ft 505 kts 212°
2026-05-07 23:49 -5.78807 -33.54564 39981 ft 508 kts 212°
2026-05-07 23:50 -5.84931 -33.58138 39990 ft 511 kts 212°
2026-05-07 23:50 -5.91065 -33.61720 39989 ft 511 kts 212°
2026-05-07 23:51 -5.97222 -33.65317 39984 ft 510 kts 212°
2026-05-07 23:51 -6.03229 -33.68829 39991 ft 513 kts 212°
2026-05-07 23:52 -6.09392 -33.72434 40000 ft 516 kts 212°
2026-05-07 23:52 -6.15503 -33.76011 39988 ft 515 kts 212°
2026-05-07 23:53 -6.21710 -33.79641 39982 ft 512 kts 212°
2026-05-07 23:53 -6.27887 -33.83258 39990 ft 514 kts 212°
2026-05-07 23:54 -6.34062 -33.86876 39999 ft 517 kts 212°
2026-05-07 23:54 -6.40252 -33.90503 39994 ft 514 kts 212°
2026-05-07 23:55 -6.46466 -33.94146 39986 ft 512 kts 212°
2026-05-07 23:55 -6.52653 -33.97775 39992 ft 515 kts 212°
2026-05-07 23:56 -6.58846 -34.01408 40001 ft 516 kts 212°
2026-05-07 23:56 -6.65042 -34.05048 39994 ft 513 kts 212°
2026-05-07 23:57 -6.71205 -34.08666 39987 ft 511 kts 213°
2026-05-07 23:57 -6.77381 -34.12291 39997 ft 513 kts 213°
2026-05-07 23:58 -6.83533 -34.15904 40003 ft 512 kts 213°
2026-05-07 23:58 -6.89659 -34.19503 39993 ft 509 kts 213°
2026-05-07 23:59 -6.95822 -34.23127 39990 ft 508 kts 213°
2026-05-07 23:59 -7.01922 -34.26714 40000 ft 511 kts 213°
2026-05-08 00:00 -7.08053 -34.30320 40004 ft 510 kts 213°
2026-05-08 00:00 -7.14178 -34.33926 39984 ft 506 kts 213°
2026-05-08 00:01 -7.20314 -34.37538 39983 ft 507 kts 213°
2026-05-08 00:01 -7.26421 -34.41133 39995 ft 510 kts 213°
2026-05-08 00:02 -7.32491 -34.44709 39995 ft 507 kts 213°
2026-05-08 00:02 -7.38606 -34.48313 39985 ft 505 kts 213°
2026-05-08 00:03 -7.44693 -34.51902 39988 ft 507 kts 213°
2026-05-08 00:03 -7.50801 -34.55505 39996 ft 509 kts 213°
2026-05-08 00:04 -7.56854 -34.59075 39993 ft 506 kts 213°
2026-05-08 00:04 -7.62978 -34.62691 39987 ft 504 kts 213°
2026-05-08 00:05 -7.69068 -34.66288 39993 ft 506 kts 213°
2026-05-08 00:05 -7.74954 -34.69765 40002 ft 507 kts 213°
2026-05-08 00:06 -7.81027 -34.73357 39997 ft 501 kts 213°
2026-05-08 00:06 -7.87047 -34.76919 39988 ft 498 kts 213°
2026-05-08 00:07 -7.93056 -34.80474 39995 ft 501 kts 214°
2026-05-08 00:07 -7.99062 -34.84033 40003 ft 502 kts 214°
2026-05-08 00:08 -8.05063 -34.87595 39998 ft 500 kts 214°
2026-05-08 00:08 -8.10885 -34.91438 39991 ft 494 kts 223°
2026-05-08 00:09 -8.15804 -34.96240 39993 ft 489 kts 234°
2026-05-08 00:09 -8.20161 -35.01487 39999 ft 489 kts 233°
2026-05-08 00:10 -8.24406 -35.06788 39995 ft 484 kts 237°
2026-05-08 00:10 -8.28491 -35.12222 39995 ft 483 kts 237°
2026-05-08 00:11 -8.32570 -35.17629 40007 ft 486 kts 237°
2026-05-08 00:11 -8.36642 -35.23019 40016 ft 486 kts 237°
2026-05-08 00:12 -8.40725 -35.28425 40013 ft 483 kts 237°
2026-05-08 00:12 -8.44836 -35.33871 40015 ft 483 kts 237°
2026-05-08 00:13 -8.48903 -35.39260 40025 ft 485 kts 237°
2026-05-08 00:13 -8.52963 -35.44643 40028 ft 485 kts 237°
2026-05-08 00:14 -8.57038 -35.50050 40021 ft 482 kts 237°
2026-05-08 00:14 -8.61139 -35.55492 40027 ft 483 kts 237°
2026-05-08 00:15 -8.65212 -35.60896 40043 ft 485 kts 237°
2026-05-08 00:15 -8.69270 -35.66284 40058 ft 484 kts 237°
2026-05-08 00:16 -8.73290 -35.71627 40057 ft 481 kts 237°
2026-05-08 00:16 -8.77332 -35.77000 40064 ft 482 kts 237°
2026-05-08 00:17 -8.81394 -35.82401 40075 ft 484 kts 237°
2026-05-08 00:17 -8.85430 -35.87772 40075 ft 481 kts 237°
2026-05-08 00:18 -8.89481 -35.93167 40068 ft 478 kts 237°
2026-05-08 00:18 -8.93542 -35.98580 40073 ft 479 kts 237°
2026-05-08 00:19 -8.97555 -36.03933 40081 ft 481 kts 237°
2026-05-08 00:19 -9.01575 -36.09276 40064 ft 479 kts 235°
2026-05-08 00:20 -9.06288 -36.14113 40063 ft 483 kts 224°
2026-05-08 00:20 -9.11668 -36.18250 40064 ft 487 kts 220°
2026-05-08 00:21 -9.17111 -36.22096 40070 ft 487 kts 219°
2026-05-08 00:21 -9.22663 -36.25990 40062 ft 484 kts 219°
2026-05-08 00:22 -9.28207 -36.29893 40055 ft 483 kts 220°
2026-05-08 00:22 -9.33728 -36.33790 40060 ft 485 kts 220°
2026-05-08 00:23 -9.39236 -36.37684 40061 ft 484 kts 220°
2026-05-08 00:23 -9.44740 -36.41580 40050 ft 481 kts 220°
2026-05-08 00:24 -9.50249 -36.45486 40049 ft 481 kts 220°
2026-05-08 00:24 -9.55740 -36.49383 40058 ft 483 kts 220°
2026-05-08 00:25 -9.61230 -36.53285 40056 ft 483 kts 220°
2026-05-08 00:25 -9.66716 -36.57193 40040 ft 479 kts 220°
2026-05-08 00:26 -9.72197 -36.61102 40035 ft 480 kts 220°
2026-05-08 00:26 -9.77675 -36.64990 40042 ft 482 kts 220°
2026-05-08 00:27 -9.83158 -36.68892 40049 ft 481 kts 220°
2026-05-08 00:27 -9.88627 -36.72803 40035 ft 478 kts 220°
2026-05-08 00:28 -9.94089 -36.76729 40027 ft 480 kts 220°
2026-05-08 00:28 -9.99558 -36.80620 40025 ft 482 kts 220°
2026-05-08 00:29 -10.05028 -36.84511 40026 ft 481 kts 220°
2026-05-08 00:29 -10.10500 -36.88409 40017 ft 478 kts 220°
2026-05-08 00:30 -10.15963 -36.92307 40013 ft 478 kts 220°
2026-05-08 00:30 -10.21396 -36.96187 40023 ft 479 kts 220°
2026-05-08 00:31 -10.26831 -37.00072 40019 ft 477 kts 220°
2026-05-08 00:31 -10.32266 -37.03963 40012 ft 476 kts 220°
2026-05-08 00:32 -10.37703 -37.07857 40015 ft 478 kts 220°
2026-05-08 00:32 -10.43127 -37.11743 40018 ft 479 kts 220°
2026-05-08 00:33 -10.48549 -37.15631 40012 ft 476 kts 220°
2026-05-08 00:33 -10.53982 -37.19532 40007 ft 475 kts 220°
2026-05-08 00:34 -10.59431 -37.23446 40011 ft 477 kts 220°
2026-05-08 00:34 -10.64831 -37.27325 40013 ft 478 kts 220°
2026-05-08 00:35 -10.70235 -37.31211 40006 ft 475 kts 220°
2026-05-08 00:35 -10.75681 -37.35130 40000 ft 474 kts 220°
2026-05-08 00:36 -10.81086 -37.39021 40005 ft 476 kts 220°
2026-05-08 00:36 -10.86477 -37.42903 40010 ft 477 kts 220°
2026-05-08 00:37 -10.91856 -37.46780 40005 ft 475 kts 220°
2026-05-08 00:38 -10.99963 -37.52628 40012 ft 475 kts 220°
2026-05-08 00:38 -11.05335 -37.56504 40002 ft 472 kts 220°
2026-05-08 00:39 -11.10744 -37.60413 39998 ft 472 kts 220°
2026-05-08 00:39 -11.16131 -37.64306 40003 ft 474 kts 220°
2026-05-08 00:40 -11.21541 -37.68219 40014 ft 472 kts 220°
2026-05-08 00:40 -11.26877 -37.72082 40007 ft 469 kts 220°
2026-05-08 00:41 -11.32224 -37.75959 40009 ft 469 kts 220°
2026-05-08 00:41 -11.37562 -37.79834 40018 ft 471 kts 220°
2026-05-08 00:42 -11.42868 -37.83694 40021 ft 469 kts 220°
2026-05-08 00:42 -11.48151 -37.87555 40012 ft 466 kts 219°
2026-05-08 00:43 -11.53477 -37.91416 40013 ft 467 kts 219°
2026-05-08 00:43 -11.58767 -37.95246 40022 ft 468 kts 219°
2026-05-08 00:44 -11.64024 -37.99060 40023 ft 465 kts 219°
2026-05-08 00:44 -11.69311 -38.02901 40017 ft 462 kts 219°
2026-05-08 00:45 -11.74563 -38.06721 40021 ft 464 kts 219°
2026-05-08 00:45 -11.79799 -38.10533 40031 ft 465 kts 219°
2026-05-08 00:46 -11.85068 -38.14372 40036 ft 462 kts 219°
2026-05-08 00:46 -11.90280 -38.18175 40034 ft 460 kts 219°
2026-05-08 00:47 -11.95237 -38.21794 40039 ft 463 kts 219°
2026-05-08 00:47 -12.00486 -38.25628 40044 ft 464 kts 219°
2026-05-08 00:48 -12.05718 -38.29453 40041 ft 462 kts 219°
2026-05-08 00:48 -12.10932 -38.33269 40036 ft 460 kts 219°
2026-05-08 00:49 -12.16219 -38.37140 40040 ft 463 kts 219°
2026-05-08 00:49 -12.21431 -38.40958 40047 ft 464 kts 219°
2026-05-08 00:50 -12.26652 -38.44787 40042 ft 462 kts 219°
2026-05-08 00:50 -12.31908 -38.48645 40033 ft 460 kts 219°
2026-05-08 00:51 -12.37124 -38.52474 40032 ft 462 kts 219°
2026-05-08 00:51 -12.42332 -38.56299 40036 ft 464 kts 219°
2026-05-08 00:52 -12.47572 -38.60152 40031 ft 462 kts 219°
2026-05-08 00:52 -12.52789 -38.63994 40020 ft 459 kts 218°
2026-05-08 00:53 -12.58021 -38.67849 40028 ft 462 kts 219°
2026-05-08 00:53 -12.63218 -38.71684 40035 ft 464 kts 219°
2026-05-08 00:54 -12.68424 -38.75533 40032 ft 462 kts 218°
2026-05-08 00:54 -12.73650 -38.79419 40025 ft 459 kts 218°
2026-05-08 00:55 -12.78851 -38.83249 40029 ft 461 kts 218°
2026-05-08 00:55 -12.84060 -38.87087 40038 ft 463 kts 218°
2026-05-08 00:56 -12.89270 -38.90948 40039 ft 461 kts 218°
2026-05-08 00:56 -12.94499 -38.94803 40033 ft 459 kts 218°
2026-05-08 00:57 -12.99699 -38.98639 40037 ft 461 kts 218°
2026-05-08 00:57 -13.04897 -39.02481 40045 ft 463 kts 218°
2026-05-08 00:58 -13.10092 -39.06327 40045 ft 461 kts 218°
2026-05-08 00:58 -13.15335 -39.10213 40042 ft 458 kts 218°
2026-05-08 00:59 -13.20515 -39.14059 40044 ft 460 kts 218°
2026-05-08 00:59 -13.25713 -39.17925 40055 ft 463 kts 218°
2026-05-08 01:00 -13.30878 -39.21769 40059 ft 461 kts 218°
2026-05-08 01:00 -13.36023 -39.25606 40055 ft 458 kts 218°
2026-05-08 01:01 -13.41005 -39.29332 40061 ft 460 kts 218°
2026-05-08 01:01 -13.46154 -39.33202 40072 ft 462 kts 218°
2026-05-08 01:02 -13.51253 -39.37004 40072 ft 459 kts 217°
2026-05-08 01:02 -13.56464 -39.40888 40070 ft 457 kts 217°
2026-05-08 01:03 -13.61633 -39.44744 40077 ft 459 kts 217°
2026-05-08 01:03 -13.66776 -39.48588 40086 ft 461 kts 217°
2026-05-08 01:04 -13.71923 -39.52439 40084 ft 458 kts 217°
2026-05-08 01:04 -13.77089 -39.56309 40079 ft 456 kts 217°
2026-05-08 01:05 -13.82267 -39.60191 40086 ft 458 kts 217°
2026-05-08 01:05 -13.87405 -39.64048 40095 ft 460 kts 217°
2026-05-08 01:06 -13.92575 -39.67932 40102 ft 458 kts 217°
2026-05-08 01:06 -13.97711 -39.71795 40096 ft 455 kts 217°
2026-05-08 01:07 -14.02864 -39.75673 40097 ft 457 kts 217°
2026-05-08 01:07 -14.07983 -39.79529 40105 ft 459 kts 217°
2026-05-08 01:08 -14.13139 -39.83416 40113 ft 457 kts 217°
2026-05-08 01:08 -14.18256 -39.87277 40110 ft 454 kts 217°
2026-05-08 01:09 -14.23403 -39.91164 40120 ft 456 kts 217°
2026-05-08 01:09 -14.28514 -39.95026 40137 ft 458 kts 217°
2026-05-08 01:10 -14.33633 -39.98899 40143 ft 457 kts 217°
2026-05-08 01:10 -14.38751 -40.02774 40135 ft 455 kts 217°
2026-05-08 01:11 -14.43896 -40.06675 40115 ft 455 kts 217°
2026-05-08 01:11 -14.49017 -40.10563 40099 ft 458 kts 217°
2026-05-08 01:12 -14.54106 -40.14434 40068 ft 457 kts 217°
2026-05-08 01:12 -14.59195 -40.18326 40019 ft 454 kts 217°
2026-05-08 01:13 -14.64314 -40.22200 40003 ft 454 kts 217°
2026-05-08 01:13 -14.69433 -40.26063 40012 ft 455 kts 216°
2026-05-08 01:14 -14.74508 -40.29897 40023 ft 455 kts 216°
2026-05-08 01:14 -14.79611 -40.33758 40022 ft 451 kts 216°
2026-05-08 01:15 -14.84690 -40.37607 40021 ft 452 kts 216°
2026-05-08 01:15 -14.89764 -40.41456 40024 ft 455 kts 216°
2026-05-08 01:16 -14.94865 -40.45329 40018 ft 454 kts 216°
2026-05-08 01:16 -14.99940 -40.49188 39999 ft 451 kts 216°
2026-05-08 01:17 -15.05016 -40.53050 39992 ft 451 kts 216°
2026-05-08 01:17 -15.10090 -40.56914 39999 ft 453 kts 216°
2026-05-08 01:18 -15.15164 -40.60782 40009 ft 453 kts 216°
2026-05-08 01:18 -15.20250 -40.64662 40001 ft 451 kts 216°
2026-05-08 01:19 -15.25342 -40.68550 39998 ft 450 kts 216°
2026-05-08 01:19 -15.30377 -40.72400 40011 ft 452 kts 216°
2026-05-08 01:20 -15.35430 -40.76264 40025 ft 452 kts 216°
2026-05-08 01:20 -15.40469 -40.80120 40028 ft 449 kts 216°
2026-05-08 01:21 -15.45496 -40.83969 40032 ft 448 kts 216°
2026-05-08 01:21 -15.50534 -40.87829 40041 ft 450 kts 216°
2026-05-08 01:22 -15.55541 -40.91669 40045 ft 450 kts 216°
2026-05-08 01:22 -15.60576 -40.95536 40038 ft 447 kts 216°
2026-05-08 01:23 -15.65596 -40.99393 40034 ft 446 kts 216°
2026-05-08 01:23 -15.70598 -41.03239 40043 ft 449 kts 216°
2026-05-08 01:24 -15.75588 -41.07082 40055 ft 449 kts 216°
2026-05-08 01:24 -15.80574 -41.10925 40053 ft 446 kts 216°
2026-05-08 01:25 -15.85589 -41.14794 40051 ft 444 kts 216°
2026-05-08 01:25 -15.90553 -41.18632 40056 ft 446 kts 216°
2026-05-08 01:26 -15.95510 -41.22478 40056 ft 446 kts 216°
2026-05-08 01:26 -16.00467 -41.26315 40042 ft 443 kts 215°
2026-05-08 01:27 -16.05458 -41.30143 40044 ft 442 kts 215°
2026-05-08 01:27 -16.10430 -41.33960 40056 ft 444 kts 215°
2026-05-08 01:28 -16.15388 -41.37775 40068 ft 444 kts 214°
2026-05-08 01:28 -16.20362 -41.41607 40062 ft 441 kts 214°
2026-05-08 01:29 -16.25308 -41.45422 40055 ft 439 kts 214°
2026-05-08 01:29 -16.30261 -41.49247 40055 ft 441 kts 214°
2026-05-08 01:30 -16.35175 -41.53046 40055 ft 443 kts 214°
2026-05-08 01:30 -16.40120 -41.56874 40044 ft 441 kts 214°
2026-05-08 01:31 -16.45057 -41.60699 40032 ft 439 kts 215°
2026-05-08 01:31 -16.49989 -41.64524 40030 ft 441 kts 215°
2026-05-08 01:32 -16.54914 -41.68348 40044 ft 443 kts 215°
2026-05-08 01:32 -16.59844 -41.72180 40050 ft 441 kts 215°
2026-05-08 01:33 -16.64798 -41.76034 40050 ft 439 kts 215°
2026-05-08 01:33 -16.69721 -41.79869 40057 ft 441 kts 215°
2026-05-08 01:34 -16.74617 -41.83688 40063 ft 443 kts 215°
2026-05-08 01:34 -16.79536 -41.87532 40061 ft 441 kts 215°
2026-05-08 01:35 -16.84450 -41.91382 40065 ft 439 kts 215°
2026-05-08 01:35 -16.89407 -41.95250 40081 ft 440 kts 214°
2026-05-08 01:36 -16.94378 -41.98984 40093 ft 442 kts 214°
2026-05-08 01:36 -16.99337 -42.02704 40098 ft 442 kts 214°
2026-05-08 01:37 -17.04334 -42.06462 40097 ft 438 kts 214°
2026-05-08 01:37 -17.09316 -42.10216 40096 ft 437 kts 214°
2026-05-08 01:38 -17.14290 -42.13970 40082 ft 439 kts 214°
2026-05-08 01:38 -17.19208 -42.17686 40033 ft 439 kts 214°
2026-05-08 01:39 -17.24169 -42.21440 40003 ft 437 kts 214°
2026-05-08 01:39 -17.29105 -42.25177 39986 ft 436 kts 214°
2026-05-08 01:40 -17.34056 -42.28929 39943 ft 438 kts 214°
2026-05-08 01:40 -17.38975 -42.32660 39891 ft 440 kts 214°
2026-05-08 01:41 -17.43917 -42.36412 39826 ft 437 kts 214°
2026-05-08 01:41 -17.48856 -42.40163 39765 ft 436 kts 214°
2026-05-08 01:42 -17.53806 -42.43927 39724 ft 438 kts 214°
2026-05-08 01:42 -17.58728 -42.47673 39685 ft 439 kts 214°
2026-05-08 01:43 -17.63648 -42.51419 39630 ft 436 kts 214°
2026-05-08 01:43 -17.68590 -42.55183 39580 ft 435 kts 214°
2026-05-08 01:44 -17.73515 -42.58939 39521 ft 438 kts 214°
2026-05-08 01:44 -17.78412 -42.62677 39476 ft 438 kts 214°
2026-05-08 01:45 -17.83346 -42.66444 39350 ft 435 kts 214°
2026-05-08 01:45 -17.85829 -42.68341 39246 ft 439 kts 214°
2026-05-08 01:45 -17.88289 -42.70222 39149 ft 434 kts 214°
2026-05-08 01:46 -17.93190 -42.73969 39034 ft 437 kts 214°
2026-05-08 01:46 -17.98112 -42.77731 38958 ft 436 kts 213°
2026-05-08 01:47 -18.03024 -42.81493 38988 ft 433 kts 214°
2026-05-08 01:47 -18.07914 -42.85241 39117 ft 436 kts 213°
2026-05-08 01:48 -18.12812 -42.88998 39427 ft 437 kts 214°
2026-05-08 01:48 -18.15306 -42.90910 39561 ft 435 kts 214°
2026-05-08 01:48 -18.17630 -42.92695 39676 ft 434 kts 214°
2026-05-08 01:48 -18.20081 -42.94576 39769 ft 438 kts 214°
2026-05-08 01:49 -18.25015 -42.98367 39878 ft 437 kts 214°
2026-05-08 01:49 -18.29903 -43.02123 39805 ft 434 kts 214°
2026-05-08 01:50 -18.34840 -43.05920 39721 ft 437 kts 214°
2026-05-08 01:50 -18.39747 -43.09699 39655 ft 439 kts 214°
2026-05-08 01:51 -18.44624 -43.13458 39627 ft 436 kts 214°
2026-05-08 01:51 -18.49549 -43.17255 39639 ft 434 kts 214°
2026-05-08 01:52 -18.54456 -43.21040 39701 ft 436 kts 214°
2026-05-08 01:52 -18.59344 -43.24812 39793 ft 439 kts 214°
2026-05-08 01:53 -18.64253 -43.28604 39815 ft 438 kts 214°
2026-05-08 01:53 -18.69171 -43.32407 39789 ft 435 kts 214°
2026-05-08 01:54 -18.74072 -43.36200 39764 ft 435 kts 214°
2026-05-08 01:54 -18.78951 -43.39978 39804 ft 438 kts 214°
2026-05-08 01:55 -18.83825 -43.43756 39992 ft 438 kts 214°
2026-05-08 01:55 -18.88750 -43.47576 40130 ft 436 kts 214°
2026-05-08 01:56 -18.93655 -43.51381 40131 ft 436 kts 214°
2026-05-08 01:56 -18.98574 -43.55201 40126 ft 438 kts 214°
2026-05-08 01:57 -19.03453 -43.58996 40137 ft 439 kts 214°
2026-05-08 01:57 -19.08341 -43.62798 40141 ft 436 kts 214°
2026-05-08 01:58 -19.13263 -43.66628 40158 ft 435 kts 215°
2026-05-08 01:58 -19.18231 -43.70496 40162 ft 437 kts 215°
2026-05-08 01:59 -19.23130 -43.74312 40162 ft 438 kts 215°
2026-05-08 01:59 -19.27997 -43.78110 40148 ft 436 kts 215°
2026-05-08 02:00 -19.32883 -43.81926 40138 ft 434 kts 215°
2026-05-08 02:00 -19.37764 -43.85741 40145 ft 436 kts 215°
2026-05-08 02:01 -19.42662 -43.89572 40164 ft 438 kts 215°
2026-05-08 02:01 -19.47546 -43.93394 40170 ft 436 kts 215°
2026-05-08 02:02 -19.52432 -43.97219 40158 ft 434 kts 215°
2026-05-08 02:02 -19.57309 -44.01042 40159 ft 435 kts 215°
2026-05-08 02:03 -19.62188 -44.04868 40178 ft 437 kts 215°
2026-05-08 02:03 -19.67029 -44.08668 40187 ft 435 kts 215°
2026-05-08 02:04 -19.71916 -44.12507 40181 ft 433 kts 215°
2026-05-08 02:04 -19.76780 -44.16331 40182 ft 434 kts 215°
2026-05-08 02:05 -19.81628 -44.20146 40191 ft 436 kts 215°
2026-05-08 02:05 -19.86500 -44.23982 40185 ft 436 kts 215°
2026-05-08 02:06 -19.91357 -44.27810 40162 ft 434 kts 215°
2026-05-08 02:06 -19.96213 -44.31639 40151 ft 433 kts 215°
2026-05-08 02:07 -20.01097 -44.35493 40156 ft 436 kts 215°
2026-05-08 02:07 -20.05941 -44.39321 40167 ft 437 kts 215°
2026-05-08 02:08 -20.10793 -44.43156 40168 ft 435 kts 215°
2026-05-08 02:08 -20.15617 -44.46973 40169 ft 432 kts 215°
2026-05-08 02:09 -20.20491 -44.50833 40170 ft 434 kts 215°
2026-05-08 02:09 -20.25347 -44.54680 40170 ft 437 kts 215°
2026-05-08 02:10 -20.30177 -44.58511 40162 ft 435 kts 215°
2026-05-08 02:10 -20.35018 -44.62352 40150 ft 432 kts 215°
2026-05-08 02:11 -20.39902 -44.66231 40151 ft 434 kts 216°
2026-05-08 02:11 -20.44771 -44.70102 40156 ft 436 kts 216°
2026-05-08 02:12 -20.49590 -44.73936 40156 ft 434 kts 216°
2026-05-08 02:12 -20.54433 -44.77792 40146 ft 431 kts 216°
2026-05-08 02:13 -20.59257 -44.81636 40141 ft 432 kts 216°
2026-05-08 02:13 -20.64068 -44.85472 40143 ft 434 kts 216°
2026-05-08 02:14 -20.68920 -44.89344 40141 ft 434 kts 216°
2026-05-08 02:14 -20.73727 -44.93183 40129 ft 431 kts 216°
2026-05-08 02:15 -20.78549 -44.97038 40120 ft 431 kts 216°
2026-05-08 02:15 -20.83365 -45.00892 40118 ft 434 kts 216°
2026-05-08 02:16 -20.88191 -45.04758 40117 ft 434 kts 216°
2026-05-08 02:16 -20.93001 -45.08615 40106 ft 432 kts 216°
2026-05-08 02:17 -20.97843 -45.12499 40093 ft 430 kts 216°
2026-05-08 02:17 -21.02643 -45.16351 40088 ft 432 kts 216°
2026-05-08 02:18 -21.07461 -45.20220 40091 ft 434 kts 216°
2026-05-08 02:18 -21.12266 -45.24083 40099 ft 432 kts 217°
2026-05-08 02:19 -21.17017 -45.27907 40090 ft 429 kts 217°
2026-05-08 02:19 -21.21749 -45.31719 40091 ft 431 kts 217°
2026-05-08 02:20 -21.26530 -45.35573 40096 ft 432 kts 217°
2026-05-08 02:20 -21.31308 -45.39429 40092 ft 431 kts 217°
2026-05-08 02:21 -21.36110 -45.43307 40079 ft 428 kts 217°
2026-05-08 02:21 -21.40898 -45.47177 40070 ft 429 kts 217°
2026-05-08 02:22 -21.45668 -45.51035 40060 ft 432 kts 217°
2026-05-08 02:22 -21.50461 -45.54915 40048 ft 431 kts 217°
2026-05-08 02:23 -21.55218 -45.58768 40040 ft 429 kts 217°
2026-05-08 02:23 -21.60019 -45.62660 40039 ft 429 kts 217°
2026-05-08 02:24 -21.64806 -45.66545 40052 ft 431 kts 217°
2026-05-08 02:24 -21.69599 -45.70440 40054 ft 432 kts 217°
2026-05-08 02:25 -21.74383 -45.74331 40046 ft 429 kts 217°
2026-05-08 02:25 -21.79153 -45.78212 40042 ft 428 kts 218°
2026-05-08 02:26 -21.83952 -45.82120 40049 ft 431 kts 218°
2026-05-08 02:26 -21.88700 -45.85990 40059 ft 432 kts 218°
2026-05-08 02:27 -21.93488 -45.89896 40064 ft 429 kts 218°
2026-05-08 02:27 -21.98228 -45.93768 40080 ft 427 kts 218°
2026-05-08 02:28 -22.02996 -45.97666 40112 ft 430 kts 218°
2026-05-08 02:28 -22.07781 -46.01582 40111 ft 432 kts 218°
2026-05-08 02:29 -22.12559 -46.05495 40071 ft 431 kts 218°
2026-05-08 02:29 -22.17281 -46.09369 40019 ft 428 kts 218°
2026-05-08 02:30 -22.21903 -46.13164 40002 ft 429 kts 218°
2026-05-08 02:30 -22.26668 -46.17041 39996 ft 431 kts 215°
2026-05-08 02:31 -22.31942 -46.20080 40024 ft 434 kts 203°
2026-05-08 02:31 -22.37764 -46.21817 40053 ft 436 kts 194°
2026-05-08 02:32 -22.43739 -46.23115 40081 ft 435 kts 195°
2026-05-08 02:32 -22.49816 -46.24172 40127 ft 440 kts 191°
2026-05-08 02:33 -22.55883 -46.25043 40134 ft 442 kts 192°
2026-05-08 02:33 -22.61980 -46.25985 40054 ft 441 kts 192°
2026-05-08 02:34 -22.68034 -46.26931 39956 ft 438 kts 192°
2026-05-08 02:34 -22.74127 -46.27935 39965 ft 438 kts 195°
2026-05-08 02:35 -22.79906 -46.29946 40038 ft 436 kts 207°
2026-05-08 02:35 -22.85337 -46.32894 40106 ft 437 kts 210°
2026-05-08 02:36 -22.90594 -46.36106 40146 ft 435 kts 212°
2026-05-08 02:36 -22.95845 -46.39371 40118 ft 432 kts 212°
2026-05-08 02:37 -23.01102 -46.42645 40094 ft 434 kts 212°
2026-05-08 02:37 -23.06349 -46.45912 40090 ft 437 kts 212°
2026-05-08 02:38 -23.11640 -46.49208 40102 ft 437 kts 212°
2026-05-08 02:38 -23.16903 -46.52496 40105 ft 435 kts 212°
2026-05-08 02:39 -23.22179 -46.55861 40104 ft 433 kts 214°
2026-05-08 02:39 -23.27242 -46.59514 40109 ft 435 kts 216°
2026-05-08 02:40 -23.32322 -46.63098 40097 ft 438 kts 213°
2026-05-08 02:40 -23.37829 -46.65910 40096 ft 439 kts 204°
2026-05-08 02:41 -23.43482 -46.67885 40076 ft 441 kts 198°
2026-05-08 02:41 -23.49681 -46.69000 40071 ft 450 kts 188°
2026-05-08 02:42 -23.55994 -46.68696 40076 ft 461 kts 176°
2026-05-08 02:42 -23.62242 -46.66895 40072 ft 470 kts 165°